Darstellungsparameter: Aktuell verwendete Einstellungen:
Skalierung der Graphiken ... ?
xyx+y,   Skalierungsfaktor:      Skalierung: Modus: x, Faktor: 1
Darstellungszeitraum ... ?
Vom - - bis: - -   Zeitraum: 06.12.2017 - 11.12.2017
Min/Max/Avg-Anzeige ... ?
Zeige MMA aktuell
Zeige MMA Monat
Zeige MMA alles
Zeige --A aktuell
Zeige --A Monat
Zeige --A alles
Keine MMA-Anzeige
MMA:
Keine MMA-Graphiken
MMA-Basis: 06.12.2017 - 11.12.2017
Quicknavigation für Darstellung... ?
Tage:      1T, 2T, 3T, 5T -1T -2T -3T -5T +1T +2T +3T +5T
Wochen: 1W, 2W, 3W -1W -2W -3W +1W +2W +3W
Monate: 1M, 3M, 6M -1M -3M -6M +1M +3M +6M
Jahre:    1J, 3J, 5J, 10J -1J -3J -5J -10J +1J +3J +5J +10J
Nutze für die Darstellung ... ?
Originaldaten oder Mittelwerte auf ...
Stundenbasis Tagesbasis Wochenbasis
Monatsbasis Jahresbasis      Datenbasis: Original-Daten
Darstellen als:
Statistik (Auto) Statistik J:M      Darstellung:
Zur Graphik,    zurück zur Übersicht aller Sensoren.
 
Tabellarische Datenbersicht: ?
 
Sensor: Nr:Datum:Temp:Abs-Feuchte:Windchill:Wind:
Aussen-T/F 1 06-12-2017 00:00:00 5 C 6.25 g/m*3 5 C 3.2 km/h
2 06-12-2017 00:05:00 5 C 6.25 g/m*3 5 C 1.6 km/h
3 06-12-2017 00:10:00 5 C 6.25 g/m*3 5 C 1.6 km/h
4 06-12-2017 00:15:00 5 C 6.25 g/m*3 5 C 4.8 km/h
5 06-12-2017 00:20:00 5 C 6.25 g/m*3 5 C 4.8 km/h
6 06-12-2017 00:25:00 5 C 6.25 g/m*3 5 C 4.8 km/h
7 06-12-2017 00:30:00 5.1 C 6.29 g/m*3 5.1 C 4.8 km/h
8 06-12-2017 00:35:00 5.1 C 6.29 g/m*3 5.1 C 4.8 km/h
9 06-12-2017 00:40:00 5.1 C 6.29 g/m*3 5.1 C 4.8 km/h
10 06-12-2017 00:45:00 5.1 C 6.29 g/m*3 5.1 C 1.6 km/h
11 06-12-2017 00:50:00 5.1 C 6.29 g/m*3 5.1 C 4.8 km/h
12 06-12-2017 00:55:00 5.1 C 6.29 g/m*3 5.1 C 1.6 km/h
13 06-12-2017 01:00:00 5.1 C 6.29 g/m*3 5.1 C 4.8 km/h
14 06-12-2017 01:05:00 5.1 C 6.29 g/m*3 5.1 C 3.2 km/h
15 06-12-2017 01:10:00 5.1 C 6.29 g/m*3 5.1 C 3.2 km/h
16 06-12-2017 01:15:00 5 C 6.25 g/m*3 5 C 1.6 km/h
17 06-12-2017 01:20:00 5 C 6.25 g/m*3 5 C 4.8 km/h
18 06-12-2017 01:25:00 5 C 6.25 g/m*3 5 C 3.2 km/h
19 06-12-2017 01:30:00 5 C 6.25 g/m*3 5 C 1.6 km/h
20 06-12-2017 01:35:00 5 C 6.25 g/m*3 5 C 3.2 km/h
21 06-12-2017 01:40:00 5 C 6.25 g/m*3 5 C 1.6 km/h
22 06-12-2017 01:45:00 5 C 6.25 g/m*3 5 C 3.2 km/h
23 06-12-2017 01:50:00 5 C 6.25 g/m*3 5 C 4.8 km/h
24 06-12-2017 01:55:00 5 C 6.25 g/m*3 3.59 C 6.4 km/h
25 06-12-2017 02:00:00 5 C 6.25 g/m*3 5 C 4.8 km/h
Sensor: Nr:Datum:Temp:Abs-Feuchte:Windchill:Wind:
Aussen-T/F 26 06-12-2017 02:05:00 5 C 6.25 g/m*3 5 C 3.2 km/h
27 06-12-2017 02:10:00 5.1 C 6.29 g/m*3 5.1 C 0 km/h
28 06-12-2017 02:15:00 5.1 C 6.36 g/m*3 5.1 C 1.6 km/h
29 06-12-2017 02:20:00 5 C 6.32 g/m*3 5 C 1.6 km/h
30 06-12-2017 02:25:00 5 C 6.32 g/m*3 3.59 C 6.4 km/h
31 06-12-2017 02:30:00 5 C 6.25 g/m*3 5 C 1.6 km/h
32 06-12-2017 02:35:00 5 C 6.32 g/m*3 5 C 3.2 km/h
33 06-12-2017 02:40:00 5 C 6.32 g/m*3 5 C 0 km/h
34 06-12-2017 02:45:00 5 C 6.32 g/m*3 5 C 0 km/h
35 06-12-2017 02:50:00 5 C 6.32 g/m*3 5 C 3.2 km/h
36 06-12-2017 02:55:00 5 C 6.32 g/m*3 5 C 0 km/h
37 06-12-2017 03:00:00 5 C 6.32 g/m*3 5 C 0 km/h
38 06-12-2017 03:05:00 4.9 C 6.28 g/m*3 4.9 C 0 km/h
39 06-12-2017 03:10:00 4.9 C 6.28 g/m*3 4.9 C 3.2 km/h
40 06-12-2017 03:15:00 4.9 C 6.28 g/m*3 4.9 C 0 km/h
41 06-12-2017 03:20:00 4.9 C 6.28 g/m*3 4.9 C 0 km/h
42 06-12-2017 03:25:00 4.9 C 6.28 g/m*3 4.9 C 3.2 km/h
43 06-12-2017 03:30:00 4.9 C 6.28 g/m*3 4.9 C 1.6 km/h
44 06-12-2017 03:35:00 4.9 C 6.28 g/m*3 4.9 C 0 km/h
45 06-12-2017 03:40:00 4.9 C 6.28 g/m*3 4.9 C 1.6 km/h
46 06-12-2017 03:45:00 4.9 C 6.28 g/m*3 4.9 C 0 km/h
47 06-12-2017 03:50:00 4.9 C 6.28 g/m*3 4.9 C 1.6 km/h
48 06-12-2017 03:55:00 4.9 C 6.28 g/m*3 4.9 C 0 km/h
49 06-12-2017 04:00:00 4.9 C 6.28 g/m*3 4.9 C 1.6 km/h
50 06-12-2017 04:05:00 4.9 C 6.28 g/m*3 4.9 C 1.6 km/h
Sensor: Nr:Datum:Temp:Abs-Feuchte:Windchill:Wind:
Aussen-T/F 51 06-12-2017 04:10:00 5 C 6.32 g/m*3 5 C 3.2 km/h
52 06-12-2017 04:15:00 5 C 6.32 g/m*3 5 C 3.2 km/h
53 06-12-2017 04:20:00 5 C 6.32 g/m*3 5 C 3.2 km/h
54 06-12-2017 04:25:00 5 C 6.32 g/m*3 5 C 1.6 km/h
55 06-12-2017 04:30:00 5 C 6.32 g/m*3 5 C 0 km/h
56 06-12-2017 04:35:00 5 C 6.32 g/m*3 5 C 0 km/h
57 06-12-2017 04:40:00 5 C 6.32 g/m*3 5 C 1.6 km/h
58 06-12-2017 04:45:00 5.1 C 6.36 g/m*3 5.1 C 1.6 km/h
59 06-12-2017 04:50:00 5.1 C 6.36 g/m*3 5.1 C 1.6 km/h
60 06-12-2017 04:55:00 5.1 C 6.36 g/m*3 5.1 C 0 km/h
61 06-12-2017 05:00:00 5.1 C 6.36 g/m*3 5.1 C 0 km/h
62 06-12-2017 05:05:00 5.1 C 6.36 g/m*3 5.1 C 0 km/h
63 06-12-2017 05:10:00 5.1 C 6.36 g/m*3 5.1 C 1.6 km/h
64 06-12-2017 05:15:00 5.1 C 6.36 g/m*3 5.1 C 1.6 km/h
65 06-12-2017 05:20:00 5.1 C 6.36 g/m*3 5.1 C 0 km/h
66 06-12-2017 05:25:00 5.1 C 6.36 g/m*3 5.1 C 1.6 km/h
67 06-12-2017 05:30:00 5.1 C 6.36 g/m*3 5.1 C 1.6 km/h
68 06-12-2017 05:35:00 5.1 C 6.36 g/m*3 5.1 C 3.2 km/h
69 06-12-2017 05:40:00 5.1 C 6.36 g/m*3 5.1 C 3.2 km/h
70 06-12-2017 05:45:00 5.1 C 6.36 g/m*3 5.1 C 3.2 km/h
71 06-12-2017 05:50:00 5.1 C 6.36 g/m*3 5.1 C 3.2 km/h
72 06-12-2017 05:55:00 5.1 C 6.36 g/m*3 5.1 C 3.2 km/h
73 06-12-2017 06:00:00 5.1 C 6.36 g/m*3 5.1 C 1.6 km/h
74 06-12-2017 06:05:00 5.2 C 6.4 g/m*3 5.2 C 3.2 km/h
75 06-12-2017 06:10:00 5.2 C 6.4 g/m*3 5.2 C 4.8 km/h
Sensor: Nr:Datum:Temp:Abs-Feuchte:Windchill:Wind:
Aussen-T/F 76 06-12-2017 06:15:00 5.2 C 6.4 g/m*3 5.2 C 3.2 km/h
77 06-12-2017 06:20:00 5.2 C 6.4 g/m*3 5.2 C 0 km/h
78 06-12-2017 06:25:00 5.2 C 6.4 g/m*3 5.2 C 3.2 km/h
79 06-12-2017 06:30:00 5.2 C 6.4 g/m*3 5.2 C 1.6 km/h
80 06-12-2017 06:35:00 5.2 C 6.4 g/m*3 5.2 C 3.2 km/h
81 06-12-2017 06:40:00 5.2 C 6.4 g/m*3 5.2 C 1.6 km/h
82 06-12-2017 06:45:00 5.3 C 6.45 g/m*3 5.3 C 1.6 km/h
83 06-12-2017 06:50:00 5.3 C 6.45 g/m*3 5.3 C 0 km/h
84 06-12-2017 06:55:00 5.3 C 6.38 g/m*3 5.3 C 0 km/h
85 06-12-2017 07:00:00 5.3 C 6.38 g/m*3 5.3 C 0 km/h
86 06-12-2017 07:05:00 5.3 C 6.45 g/m*3 5.3 C 1.6 km/h
87 06-12-2017 07:10:00 5.3 C 6.45 g/m*3 5.3 C 0 km/h
88 06-12-2017 07:15:00 5.3 C 6.45 g/m*3 5.3 C 3.2 km/h
89 06-12-2017 07:20:00 5.3 C 6.45 g/m*3 5.3 C 3.2 km/h
90 06-12-2017 07:25:00 5.3 C 6.38 g/m*3 5.3 C 1.6 km/h
91 06-12-2017 07:30:00 5.3 C 6.38 g/m*3 5.3 C 4.8 km/h
92 06-12-2017 07:35:00 5.3 C 6.38 g/m*3 5.3 C 3.2 km/h
93 06-12-2017 07:40:00 5.3 C 6.38 g/m*3 5.3 C 4.8 km/h
94 06-12-2017 07:45:00 5.4 C 6.42 g/m*3 5.4 C 4.8 km/h
95 06-12-2017 07:50:00 5.4 C 6.42 g/m*3 5.4 C 3.2 km/h
96 06-12-2017 07:55:00 5.5 C 6.46 g/m*3 5.5 C 4.8 km/h
97 06-12-2017 08:00:00 5.5 C 6.46 g/m*3 5.5 C 1.6 km/h
98 06-12-2017 08:05:00 5.5 C 6.46 g/m*3 5.5 C 1.6 km/h
99 06-12-2017 08:10:00 5.4 C 6.42 g/m*3 5.4 C 1.6 km/h
100 06-12-2017 08:15:00 5.4 C 6.42 g/m*3 5.4 C 1.6 km/h
Sensor: Nr:Datum:Temp:Abs-Feuchte:Windchill:Wind:
Aussen-T/F 101 06-12-2017 08:20:00 5.4 C 6.42 g/m*3 5.4 C 0 km/h
102 06-12-2017 08:25:00 5.4 C 6.42 g/m*3 5.4 C 1.6 km/h
103 06-12-2017 08:30:00 5.4 C 6.42 g/m*3 5.4 C 0 km/h
104 06-12-2017 08:35:00 5.4 C 6.42 g/m*3 5.4 C 0 km/h
105 06-12-2017 08:40:00 5.4 C 6.42 g/m*3 5.4 C 3.2 km/h
106 06-12-2017 08:45:00 5.4 C 6.42 g/m*3 3.58 C 8.1 km/h
107 06-12-2017 08:50:00 5.4 C 6.42 g/m*3 5.4 C 3.2 km/h
108 06-12-2017 08:55:00 5.5 C 6.46 g/m*3 5.5 C 3.2 km/h
109 06-12-2017 09:00:00 5.5 C 6.46 g/m*3 4.17 C 6.4 km/h
110 06-12-2017 09:05:00 5.6 C 6.43 g/m*3 4.29 C 6.4 km/h
111 06-12-2017 09:10:00 5.6 C 6.43 g/m*3 5.6 C 4.8 km/h
112 06-12-2017 09:15:00 5.7 C 6.48 g/m*3 5.7 C 4.8 km/h
113 06-12-2017 09:20:00 5.7 C 6.48 g/m*3 4.4 C 6.4 km/h
114 06-12-2017 09:25:00 5.7 C 6.48 g/m*3 4.4 C 6.4 km/h
115 06-12-2017 09:30:00 5.8 C 6.52 g/m*3 4.05 C 8.1 km/h
116 06-12-2017 09:35:00 5.8 C 6.45 g/m*3 4.05 C 8.1 km/h
117 06-12-2017 09:40:00 5.8 C 6.45 g/m*3 4.52 C 6.4 km/h
118 06-12-2017 09:45:00 5.9 C 6.49 g/m*3 5.9 C 4.8 km/h
119 06-12-2017 09:50:00 5.9 C 6.49 g/m*3 4.63 C 6.4 km/h
120 06-12-2017 09:55:00 5.9 C 6.49 g/m*3 4.63 C 6.4 km/h
121 06-12-2017 10:00:00 6 C 6.53 g/m*3 6 C 4.8 km/h
122 06-12-2017 10:05:00 6.1 C 6.58 g/m*3 4.86 C 6.4 km/h
123 06-12-2017 10:10:00 6.1 C 6.5 g/m*3 6.1 C 4.8 km/h
124 06-12-2017 10:15:00 6.1 C 6.58 g/m*3 6.1 C 3.2 km/h
125 06-12-2017 10:20:00 6.2 C 6.62 g/m*3 4.98 C 6.4 km/h
Sensor: Nr:Datum:Temp:Abs-Feuchte:Windchill:Wind:
Aussen-T/F 126 06-12-2017 10:25:00 6.2 C 6.55 g/m*3 4.98 C 6.4 km/h
127 06-12-2017 10:30:00 6.2 C 6.55 g/m*3 4.98 C 6.4 km/h
128 06-12-2017 10:35:00 6.2 C 6.55 g/m*3 4.98 C 6.4 km/h
129 06-12-2017 10:40:00 6.3 C 6.59 g/m*3 6.3 C 4.8 km/h
130 06-12-2017 10:45:00 6.3 C 6.59 g/m*3 5.1 C 6.4 km/h
131 06-12-2017 10:50:00 6.3 C 6.66 g/m*3 4.27 C 9.7 km/h
132 06-12-2017 10:55:00 6.3 C 6.66 g/m*3 4.27 C 9.7 km/h
133 06-12-2017 11:00:00 6.4 C 6.63 g/m*3 5.21 C 6.4 km/h
134 06-12-2017 11:05:00 6.4 C 6.63 g/m*3 5.21 C 6.4 km/h
135 06-12-2017 11:10:00 6.4 C 6.63 g/m*3 5.21 C 6.4 km/h
136 06-12-2017 11:15:00 6.5 C 6.67 g/m*3 5.33 C 6.4 km/h
137 06-12-2017 11:20:00 6.5 C 6.67 g/m*3 4.87 C 8.1 km/h
138 06-12-2017 11:25:00 6.6 C 6.72 g/m*3 4.63 C 9.7 km/h
139 06-12-2017 11:30:00 6.6 C 6.72 g/m*3 4.99 C 8.1 km/h
140 06-12-2017 11:35:00 6.6 C 6.72 g/m*3 5.44 C 6.4 km/h
141 06-12-2017 11:40:00 6.7 C 6.69 g/m*3 4.75 C 9.7 km/h
142 06-12-2017 11:45:00 6.7 C 6.69 g/m*3 5.11 C 8.1 km/h
143 06-12-2017 11:50:00 6.7 C 6.69 g/m*3 4.17 C 12.9 km/h
144 06-12-2017 11:55:00 6.7 C 6.69 g/m*3 5.56 C 6.4 km/h
145 06-12-2017 12:00:00 6.8 C 6.73 g/m*3 4.87 C 9.7 km/h
146 06-12-2017 12:05:00 6.8 C 6.73 g/m*3 5.22 C 8.1 km/h
147 06-12-2017 12:10:00 6.8 C 6.73 g/m*3 4.56 C 11.3 km/h
148 06-12-2017 12:15:00 6.8 C 6.73 g/m*3 5.22 C 8.1 km/h
149 06-12-2017 12:20:00 6.8 C 6.73 g/m*3 4.56 C 11.3 km/h
150 06-12-2017 12:25:00 6.9 C 6.7 g/m*3 4.68 C 11.3 km/h
Sensor: Nr:Datum:Temp:Abs-Feuchte:Windchill:Wind:
Aussen-T/F 151 06-12-2017 12:30:00 6.9 C 6.77 g/m*3 4.99 C 9.7 km/h
152 06-12-2017 12:35:00 6.9 C 6.77 g/m*3 5.34 C 8.1 km/h
153 06-12-2017 12:40:00 6.9 C 6.77 g/m*3 5.34 C 8.1 km/h
154 06-12-2017 12:45:00 6.9 C 6.77 g/m*3 4.99 C 9.7 km/h
155 06-12-2017 12:50:00 7 C 6.82 g/m*3 5.46 C 8.1 km/h
156 06-12-2017 12:55:00 7 C 6.74 g/m*3 4.8 C 11.3 km/h
157 06-12-2017 13:00:00 7 C 6.74 g/m*3 5.46 C 8.1 km/h
158 06-12-2017 13:05:00 7.1 C 6.86 g/m*3 6.02 C 6.4 km/h
159 06-12-2017 13:10:00 7.1 C 6.79 g/m*3 5.23 C 9.7 km/h
160 06-12-2017 13:15:00 7.1 C 6.79 g/m*3 6.02 C 6.4 km/h
161 06-12-2017 13:20:00 7.1 C 6.79 g/m*3 5.58 C 8.1 km/h
162 06-12-2017 13:25:00 7.1 C 6.79 g/m*3 5.58 C 8.1 km/h
163 06-12-2017 13:30:00 7.1 C 6.79 g/m*3 5.58 C 8.1 km/h
164 06-12-2017 13:35:00 7.1 C 6.79 g/m*3 5.23 C 9.7 km/h
165 06-12-2017 13:40:00 7.1 C 6.79 g/m*3 5.23 C 9.7 km/h
166 06-12-2017 13:45:00 7.1 C 6.79 g/m*3 5.58 C 8.1 km/h
167 06-12-2017 13:50:00 7.1 C 6.79 g/m*3 4.41 C 14.5 km/h
168 06-12-2017 13:55:00 7.2 C 6.83 g/m*3 5.35 C 9.7 km/h
169 06-12-2017 14:00:00 7.2 C 6.83 g/m*3 5.69 C 8.1 km/h
170 06-12-2017 14:05:00 7.2 C 6.83 g/m*3 7.2 C 4.8 km/h
171 06-12-2017 14:10:00 7.2 C 6.83 g/m*3 4.53 C 14.5 km/h
172 06-12-2017 14:15:00 7.2 C 6.83 g/m*3 7.2 C 4.8 km/h
173 06-12-2017 14:20:00 7.2 C 6.83 g/m*3 5.69 C 8.1 km/h
174 06-12-2017 14:25:00 7.1 C 6.79 g/m*3 6.02 C 6.4 km/h
175 06-12-2017 14:30:00 7.1 C 6.79 g/m*3 5.23 C 9.7 km/h
Sensor: Nr:Datum:Temp:Abs-Feuchte:Windchill:Wind:
Aussen-T/F 176 06-12-2017 14:35:00 7.1 C 6.79 g/m*3 5.58 C 8.1 km/h
177 06-12-2017 14:40:00 7.1 C 6.79 g/m*3 6.02 C 6.4 km/h
178 06-12-2017 14:45:00 7.1 C 6.79 g/m*3 5.23 C 9.7 km/h
179 06-12-2017 14:50:00 7.1 C 6.79 g/m*3 5.23 C 9.7 km/h
180 06-12-2017 14:55:00 7.1 C 6.79 g/m*3 5.58 C 8.1 km/h
181 06-12-2017 15:00:00 7.1 C 6.79 g/m*3 5.58 C 8.1 km/h
182 06-12-2017 15:05:00 7.1 C 6.79 g/m*3 5.23 C 9.7 km/h
183 06-12-2017 15:10:00 7.1 C 6.79 g/m*3 5.23 C 9.7 km/h
184 06-12-2017 15:15:00 7.1 C 6.79 g/m*3 4.92 C 11.3 km/h
185 06-12-2017 15:20:00 7.1 C 6.79 g/m*3 6.02 C 6.4 km/h
186 06-12-2017 15:25:00 7.1 C 6.79 g/m*3 6.02 C 6.4 km/h
187 06-12-2017 15:30:00 7.1 C 6.79 g/m*3 5.58 C 8.1 km/h
188 06-12-2017 15:35:00 7.1 C 6.79 g/m*3 5.58 C 8.1 km/h
189 06-12-2017 15:40:00 7 C 6.74 g/m*3 5.9 C 6.4 km/h
190 06-12-2017 15:45:00 7 C 6.74 g/m*3 5.11 C 9.7 km/h
191 06-12-2017 15:50:00 7 C 6.74 g/m*3 5.11 C 9.7 km/h
192 06-12-2017 15:55:00 7 C 6.74 g/m*3 5.11 C 9.7 km/h
193 06-12-2017 16:00:00 7 C 6.74 g/m*3 7 C 4.8 km/h
194 06-12-2017 16:05:00 7 C 6.74 g/m*3 5.9 C 6.4 km/h
195 06-12-2017 16:10:00 6.9 C 6.77 g/m*3 6.9 C 4.8 km/h
196 06-12-2017 16:15:00 6.9 C 6.77 g/m*3 6.9 C 3.2 km/h
197 06-12-2017 16:20:00 6.9 C 6.77 g/m*3 5.34 C 8.1 km/h
198 06-12-2017 16:25:00 6.8 C 6.73 g/m*3 6.8 C 4.8 km/h
199 06-12-2017 16:30:00 6.8 C 6.73 g/m*3 6.8 C 3.2 km/h
200 06-12-2017 16:35:00 6.8 C 6.73 g/m*3 6.8 C 4.8 km/h
Sensor: Nr:Datum:Temp:Abs-Feuchte:Windchill:Wind:
Aussen-T/F 201 06-12-2017 16:40:00 6.8 C 6.73 g/m*3 6.8 C 1.6 km/h
202 06-12-2017 16:45:00 6.7 C 6.69 g/m*3 6.7 C 3.2 km/h
203 06-12-2017 16:50:00 6.7 C 6.76 g/m*3 5.56 C 6.4 km/h
204 06-12-2017 16:55:00 6.7 C 6.76 g/m*3 6.7 C 3.2 km/h
205 06-12-2017 17:00:00 6.7 C 6.76 g/m*3 6.7 C 3.2 km/h
206 06-12-2017 17:05:00 6.6 C 6.72 g/m*3 5.44 C 6.4 km/h
207 06-12-2017 17:10:00 6.6 C 6.72 g/m*3 6.6 C 4.8 km/h
208 06-12-2017 17:15:00 6.6 C 6.72 g/m*3 6.6 C 4.8 km/h
209 06-12-2017 17:20:00 6.6 C 6.72 g/m*3 6.6 C 3.2 km/h
210 06-12-2017 17:25:00 6.5 C 6.67 g/m*3 6.5 C 3.2 km/h
211 06-12-2017 17:30:00 6.5 C 6.67 g/m*3 6.5 C 1.6 km/h
212 06-12-2017 17:35:00 6.5 C 6.67 g/m*3 6.5 C 1.6 km/h
213 06-12-2017 17:40:00 6.4 C 6.71 g/m*3 6.4 C 1.6 km/h
214 06-12-2017 17:45:00 6.4 C 6.71 g/m*3 6.4 C 1.6 km/h
215 06-12-2017 17:50:00 6.4 C 6.71 g/m*3 6.4 C 1.6 km/h
216 06-12-2017 17:55:00 6.4 C 6.71 g/m*3 6.4 C 0 km/h
217 06-12-2017 18:00:00 6.3 C 6.66 g/m*3 6.3 C 0 km/h
218 06-12-2017 18:05:00 6.3 C 6.66 g/m*3 6.3 C 0 km/h
219 06-12-2017 18:10:00 6.3 C 6.66 g/m*3 6.3 C 0 km/h
220 06-12-2017 18:15:00 6.3 C 6.74 g/m*3 6.3 C 3.2 km/h
221 06-12-2017 18:20:00 6.3 C 6.74 g/m*3 6.3 C 4.8 km/h
222 06-12-2017 18:25:00 6.2 C 6.62 g/m*3 6.2 C 1.6 km/h
223 06-12-2017 18:30:00 6.2 C 6.62 g/m*3 6.2 C 4.8 km/h
224 06-12-2017 18:35:00 6.2 C 6.62 g/m*3 6.2 C 1.6 km/h
225 06-12-2017 18:40:00 6.2 C 6.62 g/m*3 6.2 C 3.2 km/h
Sensor: Nr:Datum:Temp:Abs-Feuchte:Windchill:Wind:
Aussen-T/F 226 06-12-2017 18:45:00 6.2 C 6.62 g/m*3 6.2 C 4.8 km/h
227 06-12-2017 18:50:00 6.2 C 6.62 g/m*3 6.2 C 1.6 km/h
228 06-12-2017 18:55:00 6.2 C 6.62 g/m*3 6.2 C 1.6 km/h
229 06-12-2017 19:00:00 6.2 C 6.62 g/m*3 6.2 C 1.6 km/h
230 06-12-2017 19:05:00 6.2 C 6.62 g/m*3 6.2 C 3.2 km/h
231 06-12-2017 19:10:00 6.2 C 6.62 g/m*3 6.2 C 1.6 km/h
232 06-12-2017 19:15:00 6.2 C 6.62 g/m*3 6.2 C 1.6 km/h
233 06-12-2017 19:20:00 6.2 C 6.62 g/m*3 6.2 C 1.6 km/h
234 06-12-2017 19:25:00 6.2 C 6.62 g/m*3 6.2 C 1.6 km/h
235 06-12-2017 19:30:00 6.2 C 6.69 g/m*3 6.2 C 0 km/h
236 06-12-2017 19:35:00 6.1 C 6.58 g/m*3 6.1 C 0 km/h
237 06-12-2017 19:40:00 6.1 C 6.58 g/m*3 6.1 C 0 km/h
238 06-12-2017 19:45:00 6.1 C 6.58 g/m*3 6.1 C 3.2 km/h
239 06-12-2017 19:50:00 6.1 C 6.58 g/m*3 6.1 C 1.6 km/h
240 06-12-2017 19:55:00 6.1 C 6.58 g/m*3 4.86 C 6.4 km/h
241 06-12-2017 20:00:00 6.1 C 6.58 g/m*3 6.1 C 1.6 km/h
242 06-12-2017 20:05:00 6.1 C 6.58 g/m*3 6.1 C 1.6 km/h
243 06-12-2017 20:10:00 6.1 C 6.58 g/m*3 6.1 C 0 km/h
244 06-12-2017 20:15:00 6.1 C 6.65 g/m*3 6.1 C 1.6 km/h
245 06-12-2017 20:20:00 6 C 6.6 g/m*3 6 C 0 km/h
246 06-12-2017 20:25:00 6 C 6.6 g/m*3 6 C 1.6 km/h
247 06-12-2017 20:30:00 5.9 C 6.56 g/m*3 5.9 C 0 km/h
248 06-12-2017 20:35:00 5.9 C 6.56 g/m*3 5.9 C 0 km/h
249 06-12-2017 20:40:00 5.9 C 6.56 g/m*3 5.9 C 3.2 km/h
250 06-12-2017 20:45:00 5.9 C 6.56 g/m*3 5.9 C 1.6 km/h
Sensor: Nr:Datum:Temp:Abs-Feuchte:Windchill:Wind:
Aussen-T/F 251 06-12-2017 20:50:00 5.8 C 6.52 g/m*3 5.8 C 1.6 km/h
252 06-12-2017 20:55:00 5.8 C 6.45 g/m*3 5.8 C 0 km/h
253 06-12-2017 21:00:00 5.8 C 6.45 g/m*3 5.8 C 3.2 km/h
254 06-12-2017 21:05:00 5.8 C 6.45 g/m*3 5.8 C 3.2 km/h
255 06-12-2017 21:10:00 5.8 C 6.45 g/m*3 5.8 C 1.6 km/h
256 06-12-2017 21:15:00 5.8 C 6.45 g/m*3 3.68 C 9.7 km/h
257 06-12-2017 21:20:00 5.8 C 6.45 g/m*3 5.8 C 0 km/h
258 06-12-2017 21:25:00 5.8 C 6.45 g/m*3 5.8 C 3.2 km/h
259 06-12-2017 21:30:00 5.8 C 6.38 g/m*3 5.8 C 3.2 km/h
260 06-12-2017 21:35:00 5.8 C 6.38 g/m*3 5.8 C 1.6 km/h
261 06-12-2017 21:40:00 5.8 C 6.45 g/m*3 5.8 C 0 km/h
262 06-12-2017 21:45:00 5.8 C 6.45 g/m*3 5.8 C 1.6 km/h
263 06-12-2017 21:50:00 5.8 C 6.38 g/m*3 5.8 C 4.8 km/h
264 06-12-2017 21:55:00 5.8 C 6.38 g/m*3 5.8 C 0 km/h
265 06-12-2017 22:00:00 5.7 C 6.33 g/m*3 5.7 C 0 km/h
266 06-12-2017 22:05:00 5.7 C 6.33 g/m*3 5.7 C 1.6 km/h
267 06-12-2017 22:10:00 5.7 C 6.33 g/m*3 5.7 C 0 km/h
268 06-12-2017 22:15:00 5.7 C 6.33 g/m*3 5.7 C 0 km/h
269 06-12-2017 22:20:00 5.7 C 6.33 g/m*3 5.7 C 0 km/h
270 06-12-2017 22:25:00 5.7 C 6.33 g/m*3 5.7 C 1.6 km/h
271 06-12-2017 22:30:00 5.7 C 6.26 g/m*3 5.7 C 0 km/h
272 06-12-2017 22:35:00 5.7 C 6.26 g/m*3 5.7 C 1.6 km/h
273 06-12-2017 22:40:00 5.7 C 6.19 g/m*3 5.7 C 0 km/h
274 06-12-2017 22:45:00 5.7 C 6.19 g/m*3 5.7 C 0 km/h
275 06-12-2017 22:50:00 5.7 C 6.19 g/m*3 5.7 C 0 km/h
Sensor: Nr:Datum:Temp:Abs-Feuchte:Windchill:Wind:
Aussen-T/F 276 06-12-2017 22:55:00 5.7 C 6.26 g/m*3 5.7 C 0 km/h
277 06-12-2017 23:00:00 5.7 C 6.26 g/m*3 5.7 C 0 km/h
278 06-12-2017 23:05:00 5.6 C 6.22 g/m*3 5.6 C 1.6 km/h
279 06-12-2017 23:10:00 5.6 C 6.22 g/m*3 5.6 C 0 km/h
280 06-12-2017 23:15:00 5.6 C 6.22 g/m*3 5.6 C 3.2 km/h
281 06-12-2017 23:20:00 5.6 C 6.15 g/m*3 5.6 C 1.6 km/h
282 06-12-2017 23:25:00 5.6 C 6.15 g/m*3 5.6 C 0 km/h
283 06-12-2017 23:30:00 5.6 C 6.15 g/m*3 5.6 C 0 km/h
284 06-12-2017 23:35:00 5.5 C 6.04 g/m*3 5.5 C 0 km/h
285 06-12-2017 23:40:00 5.5 C 6.04 g/m*3 5.5 C 0 km/h
286 06-12-2017 23:45:00 5.5 C 6.04 g/m*3 5.5 C 0 km/h
287 06-12-2017 23:50:00 5.5 C 5.97 g/m*3 5.5 C 3.2 km/h
288 06-12-2017 23:55:00 5.5 C 5.97 g/m*3 5.5 C 0 km/h
289 07-12-2017 00:00:00 5.6 C 6.01 g/m*3 5.6 C 0 km/h
290 07-12-2017 00:05:00 5.6 C 6.08 g/m*3 5.6 C 0 km/h
291 07-12-2017 00:10:00 5.6 C 6.01 g/m*3 5.6 C 3.2 km/h
292 07-12-2017 00:15:00 5.6 C 6.01 g/m*3 5.6 C 3.2 km/h
293 07-12-2017 00:20:00 5.6 C 6.01 g/m*3 5.6 C 0 km/h
294 07-12-2017 00:25:00 5.6 C 5.94 g/m*3 5.6 C 3.2 km/h
295 07-12-2017 00:30:00 5.6 C 5.87 g/m*3 3.81 C 8.1 km/h
296 07-12-2017 00:35:00 5.6 C 5.87 g/m*3 5.6 C 4.8 km/h
297 07-12-2017 00:40:00 5.7 C 5.91 g/m*3 5.7 C 4.8 km/h
298 07-12-2017 00:45:00 5.7 C 5.91 g/m*3 5.7 C 4.8 km/h
299 07-12-2017 00:50:00 5.7 C 5.84 g/m*3 4.4 C 6.4 km/h
300 07-12-2017 00:55:00 5.7 C 5.76 g/m*3 5.7 C 4.8 km/h
Sensor: Nr:Datum:Temp:Abs-Feuchte:Windchill:Wind:
Aussen-T/F 301 07-12-2017 01:00:00 5.7 C 5.76 g/m*3 3.23 C 11.3 km/h
302 07-12-2017 01:05:00 5.8 C 5.8 g/m*3 5.8 C 1.6 km/h
303 07-12-2017 01:10:00 5.7 C 5.76 g/m*3 3.93 C 8.1 km/h
304 07-12-2017 01:15:00 5.7 C 5.76 g/m*3 5.7 C 1.6 km/h
305 07-12-2017 01:20:00 5.7 C 5.84 g/m*3 5.7 C 3.2 km/h
306 07-12-2017 01:25:00 5.7 C 5.76 g/m*3 5.7 C 3.2 km/h
307 07-12-2017 01:30:00 5.7 C 5.76 g/m*3 5.7 C 4.8 km/h
308 07-12-2017 01:35:00 5.7 C 5.76 g/m*3 5.7 C 4.8 km/h
309 07-12-2017 01:40:00 5.7 C 5.76 g/m*3 5.7 C 4.8 km/h
310 07-12-2017 01:45:00 5.7 C 5.76 g/m*3 3.93 C 8.1 km/h
311 07-12-2017 01:50:00 5.7 C 5.76 g/m*3 2.95 C 12.9 km/h
312 07-12-2017 01:55:00 5.7 C 5.76 g/m*3 4.4 C 6.4 km/h
313 07-12-2017 02:00:00 5.6 C 5.73 g/m*3 5.6 C 3.2 km/h
314 07-12-2017 02:05:00 5.6 C 5.8 g/m*3 5.6 C 0 km/h
315 07-12-2017 02:10:00 5.6 C 5.87 g/m*3 5.6 C 0 km/h
316 07-12-2017 02:15:00 5.4 C 5.79 g/m*3 5.4 C 1.6 km/h
317 07-12-2017 02:20:00 5.4 C 5.79 g/m*3 5.4 C 3.2 km/h
318 07-12-2017 02:25:00 5.3 C 5.75 g/m*3 5.3 C 3.2 km/h
319 07-12-2017 02:30:00 5.1 C 5.68 g/m*3 5.1 C 0 km/h
320 07-12-2017 02:35:00 4.9 C 5.67 g/m*3 4.9 C 0 km/h
321 07-12-2017 02:40:00 4.8 C 5.63 g/m*3 4.8 C 4.8 km/h
322 07-12-2017 02:45:00 4.7 C 5.66 g/m*3 4.7 C 3.2 km/h
323 07-12-2017 02:50:00 4.6 C 5.62 g/m*3 4.6 C 0 km/h
324 07-12-2017 02:55:00 4.4 C 5.62 g/m*3 4.4 C 0 km/h
325 07-12-2017 03:00:00 4.2 C 5.54 g/m*3 4.2 C 3.2 km/h
Sensor: Nr:Datum:Temp:Abs-Feuchte:Windchill:Wind:
Aussen-T/F 326 07-12-2017 03:05:00 4.1 C 5.5 g/m*3 4.1 C 1.6 km/h
327 07-12-2017 03:10:00 3.8 C 5.46 g/m*3 3.8 C 3.2 km/h
328 07-12-2017 03:15:00 3.7 C 5.48 g/m*3 3.7 C 1.6 km/h
329 07-12-2017 03:20:00 3.4 C 5.37 g/m*3 3.4 C 1.6 km/h
330 07-12-2017 03:25:00 3.2 C 5.3 g/m*3 3.2 C 1.6 km/h
331 07-12-2017 03:30:00 2.9 C 5.2 g/m*3 2.9 C 3.2 km/h
332 07-12-2017 03:35:00 2.8 C 5.22 g/m*3 2.8 C 0 km/h
333 07-12-2017 03:40:00 2.6 C 5.15 g/m*3 2.6 C 3.2 km/h
334 07-12-2017 03:45:00 2.5 C 5.17 g/m*3 2.5 C 3.2 km/h
335 07-12-2017 03:50:00 2.4 C 5.14 g/m*3 2.4 C 3.2 km/h
336 07-12-2017 03:55:00 2.3 C 5.16 g/m*3 2.3 C 3.2 km/h
337 07-12-2017 04:00:00 2.2 C 5.13 g/m*3 2.2 C 4.8 km/h
338 07-12-2017 04:05:00 2.1 C 5.09 g/m*3 2.1 C 4.8 km/h
339 07-12-2017 04:10:00 2 C 5.06 g/m*3 2 C 0 km/h
340 07-12-2017 04:15:00 1.8 C 4.99 g/m*3 1.8 C 0 km/h
341 07-12-2017 04:20:00 1.7 C 5.01 g/m*3 1.7 C 1.6 km/h
342 07-12-2017 04:25:00 1.6 C 4.97 g/m*3 1.6 C 3.2 km/h
343 07-12-2017 04:30:00 1.6 C 4.97 g/m*3 1.6 C 3.2 km/h
344 07-12-2017 04:35:00 1.6 C 5.03 g/m*3 1.6 C 3.2 km/h
345 07-12-2017 04:40:00 1.4 C 4.96 g/m*3 1.4 C 1.6 km/h
346 07-12-2017 04:45:00 1.4 C 4.96 g/m*3 1.4 C 3.2 km/h
347 07-12-2017 04:50:00 1.3 C 4.93 g/m*3 1.3 C 1.6 km/h
348 07-12-2017 04:55:00 1.3 C 4.93 g/m*3 1.3 C 3.2 km/h
349 07-12-2017 05:00:00 1.2 C 4.89 g/m*3 1.2 C 3.2 km/h
350 07-12-2017 05:05:00 1.2 C 4.89 g/m*3 1.2 C 3.2 km/h
Sensor: Nr:Datum:Temp:Abs-Feuchte:Windchill:Wind:
Aussen-T/F 351 07-12-2017 05:10:00 1.2 C 4.89 g/m*3 1.2 C 3.2 km/h
352 07-12-2017 05:15:00 1.3 C 4.98 g/m*3 1.3 C 1.6 km/h
353 07-12-2017 05:20:00 1.3 C 4.98 g/m*3 1.3 C 1.6 km/h
354 07-12-2017 05:25:00 1.5 C 5.05 g/m*3 1.5 C 0 km/h
355 07-12-2017 05:30:00 1.7 C 5.17 g/m*3 1.7 C 0 km/h
356 07-12-2017 05:35:00 1.8 C 5.21 g/m*3 1.8 C 3.2 km/h
357 07-12-2017 05:40:00 2 C 5.28 g/m*3 2 C 1.6 km/h
358 07-12-2017 05:45:00 2.2 C 5.35 g/m*3 -0.61 C 9.7 km/h
359 07-12-2017 05:50:00 2.3 C 5.33 g/m*3 -0.49 C 9.7 km/h
360 07-12-2017 05:55:00 2.5 C 5.35 g/m*3 -0.26 C 9.7 km/h
361 07-12-2017 06:00:00 2.7 C 5.42 g/m*3 0.4 C 8.1 km/h
362 07-12-2017 06:05:00 2.8 C 5.4 g/m*3 0.1 C 9.7 km/h
363 07-12-2017 06:10:00 2.8 C 5.34 g/m*3 -0.59 C 12.9 km/h
364 07-12-2017 06:15:00 2.9 C 5.32 g/m*3 0.64 C 8.1 km/h
365 07-12-2017 06:20:00 2.9 C 5.32 g/m*3 -0.46 C 12.9 km/h
366 07-12-2017 06:25:00 2.9 C 5.26 g/m*3 -0.76 C 14.5 km/h
367 07-12-2017 06:30:00 2.9 C 5.26 g/m*3 -1.49 C 19.3 km/h
368 07-12-2017 06:35:00 2.8 C 5.16 g/m*3 -1.14 C 16.1 km/h
369 07-12-2017 06:40:00 2.7 C 5.13 g/m*3 -1 C 14.5 km/h
370 07-12-2017 06:45:00 2.6 C 5.09 g/m*3 -1.12 C 14.5 km/h
371 07-12-2017 06:50:00 2.6 C 5.09 g/m*3 -1.64 C 17.7 km/h
372 07-12-2017 06:55:00 2.5 C 5.06 g/m*3 -0.95 C 12.9 km/h
373 07-12-2017 07:00:00 2.4 C 5.02 g/m*3 -0.74 C 11.3 km/h
374 07-12-2017 07:05:00 2.4 C 5.02 g/m*3 0.05 C 8.1 km/h
375 07-12-2017 07:10:00 2.4 C 5.02 g/m*3 -0.37 C 9.7 km/h
Sensor: Nr:Datum:Temp:Abs-Feuchte:Windchill:Wind:
Aussen-T/F 376 07-12-2017 07:15:00 2.4 C 5.02 g/m*3 -0.74 C 11.3 km/h
377 07-12-2017 07:20:00 2.3 C 4.99 g/m*3 -0.87 C 11.3 km/h
378 07-12-2017 07:25:00 2.3 C 4.99 g/m*3 -0.49 C 9.7 km/h
379 07-12-2017 07:30:00 2.3 C 4.99 g/m*3 -0.49 C 9.7 km/h
380 07-12-2017 07:35:00 2.3 C 4.99 g/m*3 -0.07 C 8.1 km/h
381 07-12-2017 07:40:00 2.3 C 4.99 g/m*3 -1.2 C 12.9 km/h
382 07-12-2017 07:45:00 2.3 C 4.99 g/m*3 -0.49 C 9.7 km/h
383 07-12-2017 07:50:00 2.3 C 4.99 g/m*3 -1.2 C 12.9 km/h
384 07-12-2017 07:55:00 2.3 C 4.99 g/m*3 -0.87 C 11.3 km/h
385 07-12-2017 08:00:00 2.3 C 4.99 g/m*3 -0.49 C 9.7 km/h
386 07-12-2017 08:05:00 2.3 C 4.99 g/m*3 2.3 C 4.8 km/h
387 07-12-2017 08:10:00 2.3 C 4.99 g/m*3 -0.87 C 11.3 km/h
388 07-12-2017 08:15:00 2.3 C 4.99 g/m*3 -0.07 C 8.1 km/h
389 07-12-2017 08:20:00 2.3 C 4.99 g/m*3 0.47 C 6.4 km/h
390 07-12-2017 08:25:00 2.4 C 5.02 g/m*3 2.4 C 4.8 km/h
391 07-12-2017 08:30:00 2.4 C 5.02 g/m*3 2.4 C 3.2 km/h
392 07-12-2017 08:35:00 2.4 C 5.02 g/m*3 2.4 C 3.2 km/h
393 07-12-2017 08:40:00 2.4 C 5.02 g/m*3 2.4 C 1.6 km/h
394 07-12-2017 08:45:00 2.4 C 5.02 g/m*3 0.59 C 6.4 km/h
395 07-12-2017 08:50:00 2.4 C 5.02 g/m*3 0.05 C 8.1 km/h
396 07-12-2017 08:55:00 2.5 C 5.06 g/m*3 -0.62 C 11.3 km/h
397 07-12-2017 09:00:00 2.5 C 5 g/m*3 0.71 C 6.4 km/h
398 07-12-2017 09:05:00 2.6 C 5.03 g/m*3 -0.14 C 9.7 km/h
399 07-12-2017 09:10:00 2.6 C 5.03 g/m*3 2.6 C 0 km/h
400 07-12-2017 09:15:00 2.6 C 5.03 g/m*3 2.6 C 4.8 km/h
Sensor: Nr:Datum:Temp:Abs-Feuchte:Windchill:Wind:
Aussen-T/F 401 07-12-2017 09:20:00 2.6 C 5.03 g/m*3 2.6 C 3.2 km/h
402 07-12-2017 09:25:00 2.7 C 5.07 g/m*3 0.4 C 8.1 km/h
403 07-12-2017 09:30:00 2.7 C 5.07 g/m*3 0.94 C 6.4 km/h
404 07-12-2017 09:35:00 2.7 C 5.01 g/m*3 -0.02 C 9.7 km/h
405 07-12-2017 09:40:00 2.7 C 5.01 g/m*3 -0.02 C 9.7 km/h
406 07-12-2017 09:45:00 2.8 C 5.04 g/m*3 0.52 C 8.1 km/h
407 07-12-2017 09:50:00 2.8 C 4.99 g/m*3 -0.26 C 11.3 km/h
408 07-12-2017 09:55:00 2.8 C 4.99 g/m*3 2.8 C 4.8 km/h
409 07-12-2017 10:00:00 2.8 C 4.99 g/m*3 0.1 C 9.7 km/h
410 07-12-2017 10:05:00 2.9 C 5.02 g/m*3 -0.14 C 11.3 km/h
411 07-12-2017 10:10:00 2.9 C 4.96 g/m*3 -0.76 C 14.5 km/h
412 07-12-2017 10:15:00 2.9 C 4.96 g/m*3 -0.46 C 12.9 km/h
413 07-12-2017 10:20:00 2.9 C 4.96 g/m*3 0.22 C 9.7 km/h
414 07-12-2017 10:25:00 2.9 C 4.9 g/m*3 0.64 C 8.1 km/h
415 07-12-2017 10:30:00 3 C 4.93 g/m*3 -0.02 C 11.3 km/h
416 07-12-2017 10:35:00 3 C 4.93 g/m*3 0.34 C 9.7 km/h
417 07-12-2017 10:40:00 3.1 C 4.97 g/m*3 0.1 C 11.3 km/h
418 07-12-2017 10:45:00 3.1 C 4.97 g/m*3 0.46 C 9.7 km/h
419 07-12-2017 10:50:00 3.1 C 4.97 g/m*3 0.1 C 11.3 km/h
420 07-12-2017 10:55:00 3.1 C 4.97 g/m*3 1.4 C 6.4 km/h
421 07-12-2017 11:00:00 3.1 C 4.97 g/m*3 0.46 C 9.7 km/h
422 07-12-2017 11:05:00 3.1 C 4.97 g/m*3 -0.77 C 16.1 km/h
423 07-12-2017 11:10:00 3.1 C 4.91 g/m*3 -1.83 C 24.1 km/h
424 07-12-2017 11:15:00 3.1 C 4.91 g/m*3 -0.77 C 16.1 km/h
425 07-12-2017 11:20:00 3 C 4.88 g/m*3 -0.9 C 16.1 km/h
Sensor: Nr:Datum:Temp:Abs-Feuchte:Windchill:Wind:
Aussen-T/F 426 07-12-2017 11:25:00 3 C 4.88 g/m*3 -0.34 C 12.9 km/h
427 07-12-2017 11:30:00 2.9 C 4.84 g/m*3 -0.14 C 11.3 km/h
428 07-12-2017 11:35:00 2.9 C 4.84 g/m*3 -1.26 C 17.7 km/h
429 07-12-2017 11:40:00 3 C 4.88 g/m*3 -0.34 C 12.9 km/h
430 07-12-2017 11:45:00 2.9 C 4.84 g/m*3 -1.49 C 19.3 km/h
431 07-12-2017 11:50:00 2.9 C 4.84 g/m*3 -1.49 C 19.3 km/h
432 07-12-2017 11:55:00 2.9 C 4.84 g/m*3 -1.7 C 20.9 km/h
433 07-12-2017 12:00:00 2.9 C 4.84 g/m*3 -1.26 C 17.7 km/h
434 07-12-2017 12:05:00 2.9 C 4.84 g/m*3 -0.76 C 14.5 km/h
435 07-12-2017 12:10:00 3 C 4.88 g/m*3 -0.02 C 11.3 km/h
436 07-12-2017 12:15:00 3 C 4.93 g/m*3 -0.02 C 11.3 km/h
437 07-12-2017 12:20:00 3.1 C 4.91 g/m*3 -0.51 C 14.5 km/h
438 07-12-2017 12:25:00 3.2 C 4.94 g/m*3 -0.89 C 17.7 km/h
439 07-12-2017 12:30:00 3.2 C 4.94 g/m*3 -0.89 C 17.7 km/h
440 07-12-2017 12:35:00 3.2 C 4.94 g/m*3 0.58 C 9.7 km/h
441 07-12-2017 12:40:00 3.3 C 4.97 g/m*3 1.11 C 8.1 km/h
442 07-12-2017 12:45:00 3.4 C 5.07 g/m*3 1.23 C 8.1 km/h
443 07-12-2017 12:50:00 3.6 C 5.08 g/m*3 1.06 C 9.7 km/h
444 07-12-2017 12:55:00 3.7 C 5.11 g/m*3 0.82 C 11.3 km/h
445 07-12-2017 13:00:00 3.8 C 5.14 g/m*3 1.7 C 8.1 km/h
446 07-12-2017 13:05:00 4 C 5.21 g/m*3 1.93 C 8.1 km/h
447 07-12-2017 13:10:00 4.1 C 5.25 g/m*3 2.05 C 8.1 km/h
448 07-12-2017 13:15:00 4.3 C 5.32 g/m*3 4.3 C 3.2 km/h
449 07-12-2017 13:20:00 4.4 C 5.35 g/m*3 4.4 C 4.8 km/h
450 07-12-2017 13:25:00 4.6 C 5.36 g/m*3 4.6 C 4.8 km/h
Sensor: Nr:Datum:Temp:Abs-Feuchte:Windchill:Wind:
Aussen-T/F 451 07-12-2017 13:30:00 4.7 C 5.4 g/m*3 2.37 C 9.7 km/h
452 07-12-2017 13:35:00 4.7 C 5.4 g/m*3 4.7 C 4.8 km/h
453 07-12-2017 13:40:00 4.7 C 5.4 g/m*3 2.76 C 8.1 km/h
454 07-12-2017 13:45:00 4.7 C 5.4 g/m*3 3.25 C 6.4 km/h
455 07-12-2017 13:50:00 4.7 C 5.4 g/m*3 4.7 C 1.6 km/h
456 07-12-2017 13:55:00 4.8 C 5.36 g/m*3 2.15 C 11.3 km/h
457 07-12-2017 14:00:00 5.1 C 5.47 g/m*3 3.23 C 8.1 km/h
458 07-12-2017 14:05:00 5.3 C 5.54 g/m*3 3.46 C 8.1 km/h
459 07-12-2017 14:10:00 5.5 C 5.55 g/m*3 2.99 C 11.3 km/h
460 07-12-2017 14:15:00 5.7 C 5.48 g/m*3 3.93 C 8.1 km/h
461 07-12-2017 14:20:00 5.8 C 5.52 g/m*3 5.8 C 1.6 km/h
462 07-12-2017 14:25:00 5.8 C 5.59 g/m*3 3.07 C 12.9 km/h
463 07-12-2017 14:30:00 5.8 C 5.52 g/m*3 2.81 C 14.5 km/h
464 07-12-2017 14:35:00 5.8 C 5.59 g/m*3 3.36 C 11.3 km/h
465 07-12-2017 14:40:00 5.8 C 5.59 g/m*3 4.05 C 8.1 km/h
466 07-12-2017 14:45:00 5.8 C 5.59 g/m*3 4.05 C 8.1 km/h
467 07-12-2017 14:50:00 5.8 C 5.59 g/m*3 4.52 C 6.4 km/h
468 07-12-2017 14:55:00 5.8 C 5.59 g/m*3 5.8 C 4.8 km/h
469 07-12-2017 15:00:00 5.8 C 5.66 g/m*3 4.52 C 6.4 km/h
470 07-12-2017 15:05:00 5.8 C 5.66 g/m*3 5.8 C 3.2 km/h
471 07-12-2017 15:10:00 5.8 C 5.73 g/m*3 5.8 C 3.2 km/h
472 07-12-2017 15:15:00 5.8 C 5.73 g/m*3 5.8 C 3.2 km/h
473 07-12-2017 15:20:00 5.8 C 5.73 g/m*3 5.8 C 3.2 km/h
474 07-12-2017 15:25:00 5.8 C 5.73 g/m*3 4.52 C 6.4 km/h
475 07-12-2017 15:30:00 5.8 C 5.73 g/m*3 4.52 C 6.4 km/h
Sensor: Nr:Datum:Temp:Abs-Feuchte:Windchill:Wind:
Aussen-T/F 476 07-12-2017 15:35:00 5.9 C 5.77 g/m*3 5.9 C 4.8 km/h
477 07-12-2017 15:40:00 5.9 C 5.84 g/m*3 4.17 C 8.1 km/h
478 07-12-2017 15:45:00 5.9 C 5.84 g/m*3 5.9 C 1.6 km/h
479 07-12-2017 15:50:00 6 C 5.95 g/m*3 3.31 C 12.9 km/h
480 07-12-2017 15:55:00 6.1 C 5.99 g/m*3 4.4 C 8.1 km/h
481 07-12-2017 16:00:00 6.2 C 6.03 g/m*3 4.98 C 6.4 km/h
482 07-12-2017 16:05:00 6.2 C 6.03 g/m*3 6.2 C 4.8 km/h
483 07-12-2017 16:10:00 6.3 C 6.07 g/m*3 6.3 C 4.8 km/h
484 07-12-2017 16:15:00 6.3 C 6.14 g/m*3 6.3 C 4.8 km/h
485 07-12-2017 16:20:00 6.3 C 6.14 g/m*3 6.3 C 3.2 km/h
486 07-12-2017 16:25:00 6.3 C 6.14 g/m*3 4.27 C 9.7 km/h
487 07-12-2017 16:30:00 6.4 C 6.18 g/m*3 4.39 C 9.7 km/h
488 07-12-2017 16:35:00 6.5 C 6.22 g/m*3 6.5 C 4.8 km/h
489 07-12-2017 16:40:00 6.5 C 6.22 g/m*3 6.5 C 4.8 km/h
490 07-12-2017 16:45:00 6.6 C 6.34 g/m*3 4.99 C 8.1 km/h
491 07-12-2017 16:50:00 6.6 C 6.34 g/m*3 6.6 C 1.6 km/h
492 07-12-2017 16:55:00 6.6 C 6.34 g/m*3 6.6 C 3.2 km/h
493 07-12-2017 17:00:00 6.7 C 6.38 g/m*3 6.7 C 3.2 km/h
494 07-12-2017 17:05:00 6.7 C 6.38 g/m*3 6.7 C 4.8 km/h
495 07-12-2017 17:10:00 6.8 C 6.42 g/m*3 6.8 C 3.2 km/h
496 07-12-2017 17:15:00 6.8 C 6.42 g/m*3 4.87 C 9.7 km/h
497 07-12-2017 17:20:00 6.9 C 6.47 g/m*3 6.9 C 3.2 km/h
498 07-12-2017 17:25:00 6.9 C 6.47 g/m*3 4.41 C 12.9 km/h
499 07-12-2017 17:30:00 7 C 6.51 g/m*3 5.46 C 8.1 km/h
500 07-12-2017 17:35:00 7 C 6.51 g/m*3 7 C 3.2 km/h
Sensor: Nr:Datum:Temp:Abs-Feuchte:Windchill:Wind:
Aussen-T/F 501 07-12-2017 17:40:00 7 C 6.51 g/m*3 7 C 3.2 km/h
502 07-12-2017 17:45:00 7 C 6.59 g/m*3 7 C 3.2 km/h
503 07-12-2017 17:50:00 7.1 C 6.63 g/m*3 7.1 C 4.8 km/h
504 07-12-2017 17:55:00 7.1 C 6.63 g/m*3 7.1 C 3.2 km/h
505 07-12-2017 18:00:00 7.1 C 6.63 g/m*3 7.1 C 4.8 km/h
506 07-12-2017 18:05:00 7.1 C 6.71 g/m*3 6.02 C 6.4 km/h
507 07-12-2017 18:10:00 7.1 C 6.71 g/m*3 5.58 C 8.1 km/h
508 07-12-2017 18:15:00 7.1 C 6.71 g/m*3 5.58 C 8.1 km/h
509 07-12-2017 18:20:00 7.1 C 6.79 g/m*3 7.1 C 3.2 km/h
510 07-12-2017 18:25:00 7.1 C 6.79 g/m*3 6.02 C 6.4 km/h
511 07-12-2017 18:30:00 7.1 C 6.79 g/m*3 6.02 C 6.4 km/h
512 07-12-2017 18:35:00 7.1 C 6.79 g/m*3 6.02 C 6.4 km/h
513 07-12-2017 18:40:00 7.1 C 6.79 g/m*3 7.1 C 3.2 km/h
514 07-12-2017 18:45:00 7.2 C 6.83 g/m*3 5.04 C 11.3 km/h
515 07-12-2017 18:50:00 7.3 C 6.79 g/m*3 5.16 C 11.3 km/h
516 07-12-2017 18:55:00 7.3 C 6.79 g/m*3 7.3 C 3.2 km/h
517 07-12-2017 19:00:00 7.3 C 6.79 g/m*3 7.3 C 3.2 km/h
518 07-12-2017 19:05:00 7.4 C 6.84 g/m*3 6.37 C 6.4 km/h
519 07-12-2017 19:10:00 7.4 C 6.92 g/m*3 6.37 C 6.4 km/h
520 07-12-2017 19:15:00 7.4 C 6.92 g/m*3 5.93 C 8.1 km/h
521 07-12-2017 19:20:00 7.4 C 6.92 g/m*3 5.28 C 11.3 km/h
522 07-12-2017 19:25:00 7.4 C 6.92 g/m*3 7.4 C 3.2 km/h
523 07-12-2017 19:30:00 7.4 C 6.92 g/m*3 5.93 C 8.1 km/h
524 07-12-2017 19:35:00 7.4 C 6.92 g/m*3 5.93 C 8.1 km/h
525 07-12-2017 19:40:00 7.4 C 7 g/m*3 7.4 C 4.8 km/h
Sensor: Nr:Datum:Temp:Abs-Feuchte:Windchill:Wind:
Aussen-T/F 526 07-12-2017 19:45:00 7.4 C 7 g/m*3 5.58 C 9.7 km/h
527 07-12-2017 19:50:00 7.4 C 7 g/m*3 4.78 C 14.5 km/h
528 07-12-2017 19:55:00 7.4 C 7 g/m*3 5.93 C 8.1 km/h
529 07-12-2017 20:00:00 7.4 C 7 g/m*3 4 C 20.9 km/h
530 07-12-2017 20:05:00 7.5 C 7.12 g/m*3 4.68 C 16.1 km/h
531 07-12-2017 20:10:00 7.5 C 7.12 g/m*3 5.14 C 12.9 km/h
532 07-12-2017 20:15:00 7.4 C 7.16 g/m*3 5.28 C 11.3 km/h
533 07-12-2017 20:20:00 7.4 C 7.16 g/m*3 5.02 C 12.9 km/h
534 07-12-2017 20:25:00 7.4 C 7.16 g/m*3 4.78 C 14.5 km/h
535 07-12-2017 20:30:00 7.3 C 7.19 g/m*3 4.66 C 14.5 km/h
536 07-12-2017 20:35:00 7.3 C 7.19 g/m*3 4.44 C 16.1 km/h
537 07-12-2017 20:40:00 7.3 C 7.19 g/m*3 4.23 C 17.7 km/h
538 07-12-2017 20:45:00 7.3 C 7.19 g/m*3 4.44 C 16.1 km/h
539 07-12-2017 20:50:00 7.3 C 7.19 g/m*3 5.16 C 11.3 km/h
540 07-12-2017 20:55:00 7.3 C 7.19 g/m*3 3.26 C 27.4 km/h
541 07-12-2017 21:00:00 7.2 C 7.14 g/m*3 4.31 C 16.1 km/h
542 07-12-2017 21:05:00 7.2 C 7.14 g/m*3 4.11 C 17.7 km/h
543 07-12-2017 21:10:00 7.1 C 7.1 g/m*3 3.62 C 20.9 km/h
544 07-12-2017 21:15:00 7.1 C 7.18 g/m*3 4.41 C 14.5 km/h
545 07-12-2017 21:20:00 7.1 C 7.18 g/m*3 4.41 C 14.5 km/h
546 07-12-2017 21:25:00 7 C 7.13 g/m*3 3.86 C 17.7 km/h
547 07-12-2017 21:30:00 7 C 7.13 g/m*3 2.87 C 27.4 km/h
548 07-12-2017 21:35:00 7 C 7.13 g/m*3 2.87 C 27.4 km/h
549 07-12-2017 21:40:00 6.9 C 7.08 g/m*3 2.89 C 25.7 km/h
550 07-12-2017 21:45:00 6.9 C 7.08 g/m*3 3.2 C 22.5 km/h
Sensor: Nr:Datum:Temp:Abs-Feuchte:Windchill:Wind:
Aussen-T/F 551 07-12-2017 21:50:00 6.9 C 7.16 g/m*3 3.37 C 20.9 km/h
552 07-12-2017 21:55:00 6.9 C 7.16 g/m*3 2.61 C 29 km/h
553 07-12-2017 22:00:00 6.9 C 7.16 g/m*3 3.73 C 17.7 km/h
554 07-12-2017 22:05:00 6.9 C 7.16 g/m*3 3.37 C 20.9 km/h
555 07-12-2017 22:10:00 6.9 C 7.16 g/m*3 2.74 C 27.4 km/h
556 07-12-2017 22:15:00 6.9 C 7.08 g/m*3 2.74 C 27.4 km/h
557 07-12-2017 22:20:00 6.9 C 7.08 g/m*3 2.89 C 25.7 km/h
558 07-12-2017 22:25:00 7 C 7.13 g/m*3 3.49 C 20.9 km/h
559 07-12-2017 22:30:00 7 C 7.13 g/m*3 3.67 C 19.3 km/h
560 07-12-2017 22:35:00 7 C 7.13 g/m*3 3.33 C 22.5 km/h
561 07-12-2017 22:40:00 7.1 C 7.18 g/m*3 3.98 C 17.7 km/h
562 07-12-2017 22:45:00 7.1 C 7.18 g/m*3 3.45 C 22.5 km/h
563 07-12-2017 22:50:00 7.1 C 7.18 g/m*3 3.45 C 22.5 km/h
564 07-12-2017 22:55:00 7.2 C 7.22 g/m*3 3.75 C 20.9 km/h
565 07-12-2017 23:00:00 7.2 C 7.22 g/m*3 3.92 C 19.3 km/h
566 07-12-2017 23:05:00 7.2 C 7.22 g/m*3 4.53 C 14.5 km/h
567 07-12-2017 23:10:00 7.2 C 7.22 g/m*3 3.92 C 19.3 km/h
568 07-12-2017 23:15:00 7.2 C 7.22 g/m*3 4.77 C 12.9 km/h
569 07-12-2017 23:20:00 7.2 C 7.22 g/m*3 3.75 C 20.9 km/h
570 07-12-2017 23:25:00 7.2 C 7.22 g/m*3 4.31 C 16.1 km/h
571 07-12-2017 23:30:00 7.2 C 7.22 g/m*3 5.35 C 9.7 km/h
572 07-12-2017 23:35:00 7.2 C 7.22 g/m*3 4.53 C 14.5 km/h
573 07-12-2017 23:40:00 7.2 C 7.3 g/m*3 4.53 C 14.5 km/h
574 07-12-2017 23:45:00 7.2 C 7.3 g/m*3 4.53 C 14.5 km/h
575 07-12-2017 23:50:00 7.2 C 7.3 g/m*3 4.77 C 12.9 km/h
Sensor: Nr:Datum:Temp:Abs-Feuchte:Windchill:Wind:
Aussen-T/F 576 07-12-2017 23:55:00 7.3 C 7.35 g/m*3 4.05 C 19.3 km/h
577 08-12-2017 00:00:00 7.3 C 7.27 g/m*3 4.9 C 12.9 km/h
578 08-12-2017 00:05:00 7.3 C 7.27 g/m*3 5.16 C 11.3 km/h
579 08-12-2017 00:10:00 7.3 C 7.27 g/m*3 5.16 C 11.3 km/h
580 08-12-2017 00:15:00 7.3 C 7.27 g/m*3 4.66 C 14.5 km/h
581 08-12-2017 00:20:00 7.3 C 7.27 g/m*3 5.16 C 11.3 km/h
582 08-12-2017 00:25:00 7.3 C 7.35 g/m*3 4.66 C 14.5 km/h
583 08-12-2017 00:30:00 7.3 C 7.27 g/m*3 5.47 C 9.7 km/h
584 08-12-2017 00:35:00 7.3 C 7.35 g/m*3 5.16 C 11.3 km/h
585 08-12-2017 00:40:00 7.4 C 7.4 g/m*3 5.02 C 12.9 km/h
586 08-12-2017 00:45:00 7.4 C 7.4 g/m*3 4.56 C 16.1 km/h
587 08-12-2017 00:50:00 7.4 C 7.4 g/m*3 5.58 C 9.7 km/h
588 08-12-2017 00:55:00 7.4 C 7.4 g/m*3 5.58 C 9.7 km/h
589 08-12-2017 01:00:00 7.4 C 7.4 g/m*3 5.02 C 12.9 km/h
590 08-12-2017 01:05:00 7.3 C 7.43 g/m*3 5.81 C 8.1 km/h
591 08-12-2017 01:10:00 7.3 C 7.43 g/m*3 5.16 C 11.3 km/h
592 08-12-2017 01:15:00 7 C 7.13 g/m*3 4.06 C 16.1 km/h
593 08-12-2017 01:20:00 6.8 C 7.04 g/m*3 4.29 C 12.9 km/h
594 08-12-2017 01:25:00 6.7 C 6.99 g/m*3 3.92 C 14.5 km/h
595 08-12-2017 01:30:00 6.6 C 6.95 g/m*3 5.44 C 6.4 km/h
596 08-12-2017 01:35:00 6.6 C 7.02 g/m*3 6.6 C 3.2 km/h
597 08-12-2017 01:40:00 6.4 C 6.93 g/m*3 6.4 C 1.6 km/h
598 08-12-2017 01:45:00 6.4 C 6.93 g/m*3 6.4 C 3.2 km/h
599 08-12-2017 01:50:00 6.3 C 6.88 g/m*3 6.3 C 3.2 km/h
600 08-12-2017 01:55:00 6.3 C 6.88 g/m*3 6.3 C 3.2 km/h
Sensor: Nr:Datum:Temp:Abs-Feuchte:Windchill:Wind:
Aussen-T/F 601 08-12-2017 02:00:00 6.3 C 6.88 g/m*3 3.68 C 12.9 km/h
602 08-12-2017 02:05:00 6.2 C 6.84 g/m*3 3.56 C 12.9 km/h
603 08-12-2017 02:10:00 6.2 C 6.84 g/m*3 3.84 C 11.3 km/h
604 08-12-2017 02:15:00 6.2 C 6.77 g/m*3 3.84 C 11.3 km/h
605 08-12-2017 02:20:00 6.1 C 6.79 g/m*3 6.1 C 3.2 km/h
606 08-12-2017 02:25:00 6.1 C 6.79 g/m*3 6.1 C 3.2 km/h
607 08-12-2017 02:30:00 5.9 C 6.71 g/m*3 5.9 C 3.2 km/h
608 08-12-2017 02:35:00 5.8 C 6.66 g/m*3 5.8 C 3.2 km/h
609 08-12-2017 02:40:00 5.8 C 6.66 g/m*3 5.8 C 4.8 km/h
610 08-12-2017 02:45:00 5.7 C 6.62 g/m*3 5.7 C 4.8 km/h
611 08-12-2017 02:50:00 5.7 C 6.69 g/m*3 5.7 C 4.8 km/h
612 08-12-2017 02:55:00 5.7 C 6.69 g/m*3 5.7 C 1.6 km/h
613 08-12-2017 03:00:00 5.7 C 6.69 g/m*3 5.7 C 4.8 km/h
614 08-12-2017 03:05:00 5.7 C 6.69 g/m*3 5.7 C 4.8 km/h
615 08-12-2017 03:10:00 5.7 C 6.69 g/m*3 5.7 C 3.2 km/h
616 08-12-2017 03:15:00 5.6 C 6.65 g/m*3 5.6 C 4.8 km/h
617 08-12-2017 03:20:00 5.6 C 6.65 g/m*3 5.6 C 3.2 km/h
618 08-12-2017 03:25:00 5.6 C 6.65 g/m*3 5.6 C 4.8 km/h
619 08-12-2017 03:30:00 5.6 C 6.65 g/m*3 3.81 C 8.1 km/h
620 08-12-2017 03:35:00 5.6 C 6.65 g/m*3 3.44 C 9.7 km/h
621 08-12-2017 03:40:00 5.6 C 6.57 g/m*3 1.72 C 20.9 km/h
622 08-12-2017 03:45:00 5.6 C 6.57 g/m*3 3.81 C 8.1 km/h
623 08-12-2017 03:50:00 5.5 C 6.53 g/m*3 5.5 C 4.8 km/h
624 08-12-2017 03:55:00 5.3 C 6.45 g/m*3 3.94 C 6.4 km/h
625 08-12-2017 04:00:00 5.2 C 6.33 g/m*3 3.34 C 8.1 km/h
Sensor: Nr:Datum:Temp:Abs-Feuchte:Windchill:Wind:
Aussen-T/F 626 08-12-2017 04:05:00 5.2 C 6.4 g/m*3 5.2 C 4.8 km/h
627 08-12-2017 04:10:00 5.1 C 6.36 g/m*3 5.1 C 4.8 km/h
628 08-12-2017 04:15:00 4.9 C 6.28 g/m*3 4.9 C 4.8 km/h
629 08-12-2017 04:20:00 4.8 C 6.24 g/m*3 3.36 C 6.4 km/h
630 08-12-2017 04:25:00 4.8 C 6.24 g/m*3 2.87 C 8.1 km/h
631 08-12-2017 04:30:00 4.7 C 6.19 g/m*3 4.7 C 3.2 km/h
632 08-12-2017 04:35:00 4.6 C 6.15 g/m*3 3.13 C 6.4 km/h
633 08-12-2017 04:40:00 4.6 C 6.15 g/m*3 4.6 C 0 km/h
634 08-12-2017 04:45:00 4.4 C 6.07 g/m*3 4.4 C 0 km/h
635 08-12-2017 04:50:00 4.3 C 6.03 g/m*3 4.3 C 0 km/h
636 08-12-2017 04:55:00 4.2 C 5.99 g/m*3 4.2 C 0 km/h
637 08-12-2017 05:00:00 4.1 C 5.95 g/m*3 4.1 C 0 km/h
638 08-12-2017 05:05:00 3.9 C 5.94 g/m*3 3.9 C 3.2 km/h
639 08-12-2017 05:10:00 3.9 C 5.94 g/m*3 3.9 C 3.2 km/h
640 08-12-2017 05:15:00 3.8 C 5.9 g/m*3 3.8 C 3.2 km/h
641 08-12-2017 05:20:00 3.8 C 5.9 g/m*3 3.8 C 1.6 km/h
642 08-12-2017 05:25:00 3.7 C 5.86 g/m*3 3.7 C 1.6 km/h
643 08-12-2017 05:30:00 3.6 C 5.82 g/m*3 3.6 C 3.2 km/h
644 08-12-2017 05:35:00 3.4 C 5.74 g/m*3 3.4 C 3.2 km/h
645 08-12-2017 05:40:00 3.4 C 5.74 g/m*3 3.4 C 4.8 km/h
646 08-12-2017 05:45:00 3.3 C 5.7 g/m*3 3.3 C 3.2 km/h
647 08-12-2017 05:50:00 3.2 C 5.66 g/m*3 3.2 C 1.6 km/h
648 08-12-2017 05:55:00 3.1 C 5.63 g/m*3 3.1 C 3.2 km/h
649 08-12-2017 06:00:00 3 C 5.59 g/m*3 3 C 1.6 km/h
650 08-12-2017 06:05:00 2.9 C 5.55 g/m*3 2.9 C 3.2 km/h
Sensor: Nr:Datum:Temp:Abs-Feuchte:Windchill:Wind:
Aussen-T/F 651 08-12-2017 06:10:00 2.8 C 5.57 g/m*3 2.8 C 3.2 km/h
652 08-12-2017 06:15:00 2.8 C 5.57 g/m*3 2.8 C 4.8 km/h
653 08-12-2017 06:20:00 2.8 C 5.57 g/m*3 2.8 C 3.2 km/h
654 08-12-2017 06:25:00 2.8 C 5.57 g/m*3 1.05 C 6.4 km/h
655 08-12-2017 06:30:00 2.8 C 5.57 g/m*3 2.8 C 3.2 km/h
656 08-12-2017 06:35:00 2.8 C 5.57 g/m*3 1.05 C 6.4 km/h
657 08-12-2017 06:40:00 2.8 C 5.57 g/m*3 2.8 C 4.8 km/h
658 08-12-2017 06:45:00 2.8 C 5.57 g/m*3 0.52 C 8.1 km/h
659 08-12-2017 06:50:00 2.8 C 5.57 g/m*3 2.8 C 4.8 km/h
660 08-12-2017 06:55:00 2.7 C 5.54 g/m*3 2.7 C 3.2 km/h
661 08-12-2017 07:00:00 2.7 C 5.54 g/m*3 2.7 C 4.8 km/h
662 08-12-2017 07:05:00 2.7 C 5.54 g/m*3 2.7 C 4.8 km/h
663 08-12-2017 07:10:00 2.6 C 5.5 g/m*3 2.6 C 3.2 km/h
664 08-12-2017 07:15:00 2.6 C 5.5 g/m*3 2.6 C 4.8 km/h
665 08-12-2017 07:20:00 2.5 C 5.4 g/m*3 2.5 C 3.2 km/h
666 08-12-2017 07:25:00 2.4 C 5.42 g/m*3 2.4 C 3.2 km/h
667 08-12-2017 07:30:00 2.3 C 5.33 g/m*3 2.3 C 1.6 km/h
668 08-12-2017 07:35:00 2.3 C 5.39 g/m*3 2.3 C 0 km/h
669 08-12-2017 07:40:00 2.3 C 5.39 g/m*3 2.3 C 3.2 km/h
670 08-12-2017 07:45:00 2.3 C 5.39 g/m*3 2.3 C 4.8 km/h
671 08-12-2017 07:50:00 2.4 C 5.42 g/m*3 2.4 C 0 km/h
672 08-12-2017 07:55:00 2.4 C 5.42 g/m*3 2.4 C 0 km/h
673 08-12-2017 08:00:00 2.3 C 5.39 g/m*3 2.3 C 1.6 km/h
674 08-12-2017 08:05:00 2.3 C 5.39 g/m*3 2.3 C 1.6 km/h
675 08-12-2017 08:10:00 2.2 C 5.35 g/m*3 2.2 C 0 km/h
Sensor: Nr:Datum:Temp:Abs-Feuchte:Windchill:Wind:
Aussen-T/F 676 08-12-2017 08:15:00 2.2 C 5.35 g/m*3 2.2 C 3.2 km/h
677 08-12-2017 08:20:00 2.2 C 5.35 g/m*3 2.2 C 3.2 km/h
678 08-12-2017 08:25:00 2.2 C 5.35 g/m*3 2.2 C 1.6 km/h
679 08-12-2017 08:30:00 2.1 C 5.31 g/m*3 2.1 C 1.6 km/h
680 08-12-2017 08:35:00 2 C 5.28 g/m*3 2 C 1.6 km/h
681 08-12-2017 08:40:00 2 C 5.28 g/m*3 2 C 1.6 km/h
682 08-12-2017 08:45:00 1.9 C 5.24 g/m*3 1.9 C 1.6 km/h
683 08-12-2017 08:50:00 1.9 C 5.24 g/m*3 1.9 C 1.6 km/h
684 08-12-2017 08:55:00 1.9 C 5.24 g/m*3 1.9 C 4.8 km/h
685 08-12-2017 09:00:00 1.9 C 5.24 g/m*3 1.9 C 0 km/h
686 08-12-2017 09:05:00 1.9 C 5.24 g/m*3 1.9 C 0 km/h
687 08-12-2017 09:10:00 1.9 C 5.24 g/m*3 1.9 C 0 km/h
688 08-12-2017 09:15:00 1.8 C 5.21 g/m*3 1.8 C 0 km/h
689 08-12-2017 09:20:00 1.8 C 5.21 g/m*3 1.8 C 3.2 km/h
690 08-12-2017 09:25:00 1.9 C 5.24 g/m*3 1.9 C 3.2 km/h
691 08-12-2017 09:30:00 2 C 5.33 g/m*3 -1.23 C 11.3 km/h
692 08-12-2017 09:35:00 2.2 C 5.41 g/m*3 2.2 C 3.2 km/h
693 08-12-2017 09:40:00 2.3 C 5.44 g/m*3 -0.07 C 8.1 km/h
694 08-12-2017 09:45:00 2.6 C 5.56 g/m*3 -1.12 C 14.5 km/h
695 08-12-2017 09:50:00 2.8 C 5.57 g/m*3 -0.26 C 11.3 km/h
696 08-12-2017 09:55:00 2.9 C 5.61 g/m*3 -0.46 C 12.9 km/h
697 08-12-2017 10:00:00 3.1 C 5.63 g/m*3 0.1 C 11.3 km/h
698 08-12-2017 10:05:00 3.2 C 5.6 g/m*3 -0.39 C 14.5 km/h
699 08-12-2017 10:10:00 3.3 C 5.64 g/m*3 0.7 C 9.7 km/h
700 08-12-2017 10:15:00 3.4 C 5.62 g/m*3 0.46 C 11.3 km/h
Sensor: Nr:Datum:Temp:Abs-Feuchte:Windchill:Wind:
Aussen-T/F 701 08-12-2017 10:20:00 3.5 C 5.66 g/m*3 0.27 C 12.9 km/h
702 08-12-2017 10:25:00 3.7 C 5.67 g/m*3 0.82 C 11.3 km/h
703 08-12-2017 10:30:00 3.7 C 5.67 g/m*3 -0.26 C 17.7 km/h
704 08-12-2017 10:35:00 3.8 C 5.65 g/m*3 1.29 C 9.7 km/h
705 08-12-2017 10:40:00 3.9 C 5.62 g/m*3 1.06 C 11.3 km/h
706 08-12-2017 10:45:00 3.9 C 5.62 g/m*3 0.75 C 12.9 km/h
707 08-12-2017 10:50:00 4 C 5.59 g/m*3 0.6 C 14.5 km/h
708 08-12-2017 10:55:00 4.1 C 5.57 g/m*3 0.47 C 16.1 km/h
709 08-12-2017 11:00:00 4.1 C 5.57 g/m*3 1.65 C 9.7 km/h
710 08-12-2017 11:05:00 4.2 C 5.61 g/m*3 2.17 C 8.1 km/h
711 08-12-2017 11:10:00 4.2 C 5.61 g/m*3 1.43 C 11.3 km/h
712 08-12-2017 11:15:00 4.2 C 5.61 g/m*3 1.12 C 12.9 km/h
713 08-12-2017 11:20:00 4.3 C 5.64 g/m*3 4.3 C 4.8 km/h
714 08-12-2017 11:25:00 4.3 C 5.58 g/m*3 2.78 C 6.4 km/h
715 08-12-2017 11:30:00 4.4 C 5.62 g/m*3 2.01 C 9.7 km/h
716 08-12-2017 11:35:00 4.4 C 5.62 g/m*3 2.4 C 8.1 km/h
717 08-12-2017 11:40:00 4.5 C 5.65 g/m*3 1.79 C 11.3 km/h
718 08-12-2017 11:45:00 4.6 C 5.69 g/m*3 1.61 C 12.9 km/h
719 08-12-2017 11:50:00 4.5 C 5.59 g/m*3 1.79 C 11.3 km/h
720 08-12-2017 11:55:00 4.5 C 5.59 g/m*3 1.48 C 12.9 km/h
721 08-12-2017 12:00:00 4.5 C 5.59 g/m*3 2.52 C 8.1 km/h
722 08-12-2017 12:05:00 4.6 C 5.62 g/m*3 2.64 C 8.1 km/h
723 08-12-2017 12:10:00 4.6 C 5.56 g/m*3 1.91 C 11.3 km/h
724 08-12-2017 12:15:00 4.6 C 5.62 g/m*3 2.64 C 8.1 km/h
725 08-12-2017 12:20:00 4.7 C 5.6 g/m*3 1.73 C 12.9 km/h
Sensor: Nr:Datum:Temp:Abs-Feuchte:Windchill:Wind:
Aussen-T/F 726 08-12-2017 12:25:00 4.7 C 5.53 g/m*3 0.99 C 17.7 km/h
727 08-12-2017 12:30:00 4.8 C 5.57 g/m*3 1.85 C 12.9 km/h
728 08-12-2017 12:35:00 4.8 C 5.57 g/m*3 1.85 C 12.9 km/h
729 08-12-2017 12:40:00 4.8 C 5.57 g/m*3 2.49 C 9.7 km/h
730 08-12-2017 12:45:00 4.8 C 5.57 g/m*3 2.49 C 9.7 km/h
731 08-12-2017 12:50:00 4.7 C 5.53 g/m*3 2.37 C 9.7 km/h
732 08-12-2017 12:55:00 4.7 C 5.53 g/m*3 1.46 C 14.5 km/h
733 08-12-2017 13:00:00 4.6 C 5.56 g/m*3 1.61 C 12.9 km/h
734 08-12-2017 13:05:00 4.5 C 5.46 g/m*3 0.96 C 16.1 km/h
735 08-12-2017 13:10:00 4.4 C 5.35 g/m*3 0.2 C 20.9 km/h
736 08-12-2017 13:15:00 4.5 C 5.39 g/m*3 1.79 C 11.3 km/h
737 08-12-2017 13:20:00 4.6 C 5.43 g/m*3 1.34 C 14.5 km/h
738 08-12-2017 13:25:00 4.6 C 5.16 g/m*3 0.86 C 17.7 km/h
739 08-12-2017 13:30:00 4.6 C 4.96 g/m*3 0.27 C 22.5 km/h
740 08-12-2017 13:35:00 4.6 C 4.96 g/m*3 1.34 C 14.5 km/h
741 08-12-2017 13:40:00 4.7 C 5.06 g/m*3 1.73 C 12.9 km/h
742 08-12-2017 13:45:00 4.7 C 4.93 g/m*3 1.21 C 16.1 km/h
743 08-12-2017 13:50:00 4.7 C 5.06 g/m*3 2.03 C 11.3 km/h
744 08-12-2017 13:55:00 4.7 C 5.06 g/m*3 1.46 C 14.5 km/h
745 08-12-2017 14:00:00 4.7 C 5 g/m*3 1.73 C 12.9 km/h
746 08-12-2017 14:05:00 4.7 C 5.06 g/m*3 2.03 C 11.3 km/h
747 08-12-2017 14:10:00 4.6 C 4.96 g/m*3 1.09 C 16.1 km/h
748 08-12-2017 14:15:00 4.5 C 4.86 g/m*3 0.74 C 17.7 km/h
749 08-12-2017 14:20:00 4.5 C 4.93 g/m*3 1.48 C 12.9 km/h
750 08-12-2017 14:25:00 4.5 C 5 g/m*3 2.13 C 9.7 km/h
Sensor: Nr:Datum:Temp:Abs-Feuchte:Windchill:Wind:
Aussen-T/F 751 08-12-2017 14:30:00 4.5 C 5 g/m*3 1.79 C 11.3 km/h
752 08-12-2017 14:35:00 4.5 C 5.06 g/m*3 1.48 C 12.9 km/h
753 08-12-2017 14:40:00 4.5 C 5 g/m*3 0.14 C 22.5 km/h
754 08-12-2017 14:45:00 4.5 C 5 g/m*3 0.74 C 17.7 km/h
755 08-12-2017 14:50:00 4.6 C 5.03 g/m*3 1.34 C 14.5 km/h
756 08-12-2017 14:55:00 4.6 C 4.96 g/m*3 0.65 C 19.3 km/h
757 08-12-2017 15:00:00 4.6 C 5.03 g/m*3 1.91 C 11.3 km/h
758 08-12-2017 15:05:00 4.6 C 5.03 g/m*3 1.61 C 12.9 km/h
759 08-12-2017 15:10:00 4.6 C 5.03 g/m*3 -0.07 C 25.7 km/h
760 08-12-2017 15:15:00 4.5 C 5.06 g/m*3 -0.03 C 24.1 km/h
761 08-12-2017 15:20:00 4.4 C 5.03 g/m*3 0.61 C 17.7 km/h
762 08-12-2017 15:25:00 4.4 C 5.09 g/m*3 0.84 C 16.1 km/h
763 08-12-2017 15:30:00 4.4 C 5.09 g/m*3 0.61 C 17.7 km/h
764 08-12-2017 15:35:00 4.4 C 5.09 g/m*3 1.09 C 14.5 km/h
765 08-12-2017 15:40:00 4.3 C 5.19 g/m*3 0.72 C 16.1 km/h
766 08-12-2017 15:45:00 4.2 C 5.15 g/m*3 -0.75 C 27.4 km/h
767 08-12-2017 15:50:00 4.1 C 5.18 g/m*3 -0.88 C 27.4 km/h
768 08-12-2017 15:55:00 4.1 C 5.18 g/m*3 1 C 12.9 km/h
769 08-12-2017 16:00:00 4.1 C 5.25 g/m*3 0.47 C 16.1 km/h
770 08-12-2017 16:05:00 4 C 5.21 g/m*3 0.88 C 12.9 km/h
771 08-12-2017 16:10:00 3.9 C 5.18 g/m*3 1.06 C 11.3 km/h
772 08-12-2017 16:15:00 3.8 C 5.14 g/m*3 0.35 C 14.5 km/h
773 08-12-2017 16:20:00 3.8 C 5.21 g/m*3 0.94 C 11.3 km/h
774 08-12-2017 16:25:00 3.7 C 5.17 g/m*3 1.18 C 9.7 km/h
775 08-12-2017 16:30:00 3.7 C 5.11 g/m*3 0.82 C 11.3 km/h
Sensor: Nr:Datum:Temp:Abs-Feuchte:Windchill:Wind:
Aussen-T/F 776 08-12-2017 16:35:00 3.7 C 5.11 g/m*3 0.82 C 11.3 km/h
777 08-12-2017 16:40:00 3.6 C 5.14 g/m*3 0.7 C 11.3 km/h
778 08-12-2017 16:45:00 3.6 C 5.08 g/m*3 1.06 C 9.7 km/h
779 08-12-2017 16:50:00 3.5 C 4.98 g/m*3 -0.73 C 19.3 km/h
780 08-12-2017 16:55:00 3.5 C 4.98 g/m*3 -0.02 C 14.5 km/h
781 08-12-2017 17:00:00 3.4 C 4.95 g/m*3 0.14 C 12.9 km/h
782 08-12-2017 17:05:00 3.4 C 4.95 g/m*3 0.82 C 9.7 km/h
783 08-12-2017 17:10:00 3.3 C 4.91 g/m*3 1.63 C 6.4 km/h
784 08-12-2017 17:15:00 3.2 C 4.88 g/m*3 0.58 C 9.7 km/h
785 08-12-2017 17:20:00 3.1 C 4.85 g/m*3 1.4 C 6.4 km/h
786 08-12-2017 17:25:00 2.9 C 4.84 g/m*3 0.64 C 8.1 km/h
787 08-12-2017 17:30:00 2.8 C 4.81 g/m*3 1.05 C 6.4 km/h
788 08-12-2017 17:35:00 2.7 C 4.78 g/m*3 0.94 C 6.4 km/h
789 08-12-2017 17:40:00 2.7 C 4.84 g/m*3 0.94 C 6.4 km/h
790 08-12-2017 17:45:00 2.5 C 4.77 g/m*3 0.71 C 6.4 km/h
791 08-12-2017 17:50:00 2.4 C 4.8 g/m*3 2.4 C 4.8 km/h
792 08-12-2017 17:55:00 2.3 C 4.76 g/m*3 -0.07 C 8.1 km/h
793 08-12-2017 18:00:00 2.2 C 4.79 g/m*3 0.36 C 6.4 km/h
794 08-12-2017 18:05:00 2.2 C 4.84 g/m*3 2.2 C 3.2 km/h
795 08-12-2017 18:10:00 2.1 C 4.81 g/m*3 2.1 C 1.6 km/h
796 08-12-2017 18:15:00 2.2 C 4.84 g/m*3 -0.61 C 9.7 km/h
797 08-12-2017 18:20:00 2.2 C 4.9 g/m*3 -0.99 C 11.3 km/h
798 08-12-2017 18:25:00 2.3 C 4.93 g/m*3 -1.2 C 12.9 km/h
799 08-12-2017 18:30:00 2.3 C 4.93 g/m*3 -0.49 C 9.7 km/h
800 08-12-2017 18:35:00 2.3 C 4.99 g/m*3 -1.49 C 14.5 km/h
Sensor: Nr:Datum:Temp:Abs-Feuchte:Windchill:Wind:
Aussen-T/F 801 08-12-2017 18:40:00 2.3 C 4.99 g/m*3 0.47 C 6.4 km/h
802 08-12-2017 18:45:00 2.3 C 5.05 g/m*3 -0.07 C 8.1 km/h
803 08-12-2017 18:50:00 2.2 C 5.01 g/m*3 -0.18 C 8.1 km/h
804 08-12-2017 18:55:00 2.2 C 5.07 g/m*3 -0.99 C 11.3 km/h
805 08-12-2017 19:00:00 2.1 C 5.04 g/m*3 -1.11 C 11.3 km/h
806 08-12-2017 19:05:00 2.1 C 5.04 g/m*3 0.24 C 6.4 km/h
807 08-12-2017 19:10:00 1.9 C 4.97 g/m*3 0.01 C 6.4 km/h
808 08-12-2017 19:15:00 1.9 C 4.97 g/m*3 0.01 C 6.4 km/h
809 08-12-2017 19:20:00 1.8 C 4.93 g/m*3 -1.09 C 9.7 km/h
810 08-12-2017 19:25:00 1.8 C 4.93 g/m*3 1.8 C 4.8 km/h
811 08-12-2017 19:30:00 1.7 C 4.85 g/m*3 -0.77 C 8.1 km/h
812 08-12-2017 19:35:00 1.7 C 4.9 g/m*3 1.7 C 4.8 km/h
813 08-12-2017 19:40:00 1.6 C 4.81 g/m*3 1.6 C 4.8 km/h
814 08-12-2017 19:45:00 1.6 C 4.81 g/m*3 1.6 C 4.8 km/h
815 08-12-2017 19:50:00 1.6 C 4.81 g/m*3 1.6 C 4.8 km/h
816 08-12-2017 19:55:00 1.5 C 4.83 g/m*3 -0.45 C 6.4 km/h
817 08-12-2017 20:00:00 1.4 C 4.8 g/m*3 -1.12 C 8.1 km/h
818 08-12-2017 20:05:00 1.4 C 4.8 g/m*3 -0.56 C 6.4 km/h
819 08-12-2017 20:10:00 1.3 C 4.77 g/m*3 1.3 C 3.2 km/h
820 08-12-2017 20:15:00 1.2 C 4.74 g/m*3 1.2 C 1.6 km/h
821 08-12-2017 20:20:00 1.1 C 4.7 g/m*3 1.1 C 3.2 km/h
822 08-12-2017 20:25:00 0.9 C 4.64 g/m*3 0.9 C 1.6 km/h
823 08-12-2017 20:30:00 0.8 C 4.61 g/m*3 0.8 C 0 km/h
824 08-12-2017 20:35:00 0.7 C 4.58 g/m*3 0.7 C 3.2 km/h
825 08-12-2017 20:40:00 0.6 C 4.6 g/m*3 0.6 C 4.8 km/h
Sensor: Nr:Datum:Temp:Abs-Feuchte:Windchill:Wind:
Aussen-T/F 826 08-12-2017 20:45:00 0.5 C 4.56 g/m*3 0.5 C 1.6 km/h
827 08-12-2017 20:50:00 0.4 C 4.53 g/m*3 0.4 C 3.2 km/h
828 08-12-2017 20:55:00 0.4 C 4.58 g/m*3 0.4 C 3.2 km/h
829 08-12-2017 21:00:00 0.4 C 4.58 g/m*3 0.4 C 3.2 km/h
830 08-12-2017 21:05:00 0.4 C 4.58 g/m*3 0.4 C 4.8 km/h
831 08-12-2017 21:10:00 0.4 C 4.58 g/m*3 0.4 C 3.2 km/h
832 08-12-2017 21:15:00 0.4 C 4.58 g/m*3 -2.76 C 9.7 km/h
833 08-12-2017 21:20:00 0.4 C 4.53 g/m*3 0.4 C 1.6 km/h
834 08-12-2017 21:25:00 0.4 C 4.53 g/m*3 0.4 C 3.2 km/h
835 08-12-2017 21:30:00 0.3 C 4.5 g/m*3 0.3 C 1.6 km/h
836 08-12-2017 21:35:00 0.2 C 4.52 g/m*3 0.2 C 1.6 km/h
837 08-12-2017 21:40:00 0.2 C 4.52 g/m*3 0.2 C 0 km/h
838 08-12-2017 21:45:00 0.2 C 4.52 g/m*3 0.2 C 1.6 km/h
839 08-12-2017 21:50:00 0.2 C 4.52 g/m*3 0.2 C 3.2 km/h
840 08-12-2017 21:55:00 0.2 C 4.57 g/m*3 -2.53 C 8.1 km/h
841 08-12-2017 22:00:00 0.3 C 4.55 g/m*3 -2.88 C 9.7 km/h
842 08-12-2017 22:05:00 0.5 C 4.56 g/m*3 -3.39 C 12.9 km/h
843 08-12-2017 22:10:00 0.8 C 4.61 g/m*3 -1.83 C 8.1 km/h
844 08-12-2017 22:15:00 1.1 C 4.65 g/m*3 -2.97 C 14.5 km/h
845 08-12-2017 22:20:00 1.2 C 4.63 g/m*3 -1.8 C 9.7 km/h
846 08-12-2017 22:25:00 1.3 C 4.61 g/m*3 -0.68 C 6.4 km/h
847 08-12-2017 22:30:00 1.3 C 4.61 g/m*3 -1.69 C 9.7 km/h
848 08-12-2017 22:35:00 1.4 C 4.59 g/m*3 1.4 C 4.8 km/h
849 08-12-2017 22:40:00 1.5 C 4.62 g/m*3 -2.17 C 12.9 km/h
850 08-12-2017 22:45:00 1.6 C 4.65 g/m*3 -0.89 C 8.1 km/h
Sensor: Nr:Datum:Temp:Abs-Feuchte:Windchill:Wind:
Aussen-T/F 851 08-12-2017 22:50:00 1.6 C 4.65 g/m*3 -2.05 C 12.9 km/h
852 08-12-2017 22:55:00 1.7 C 4.68 g/m*3 -1.59 C 11.3 km/h
853 08-12-2017 23:00:00 1.7 C 4.68 g/m*3 -1.59 C 11.3 km/h
854 08-12-2017 23:05:00 1.7 C 4.68 g/m*3 -0.77 C 8.1 km/h
855 08-12-2017 23:10:00 1.7 C 4.68 g/m*3 -1.93 C 12.9 km/h
856 08-12-2017 23:15:00 1.7 C 4.68 g/m*3 -1.21 C 9.7 km/h
857 08-12-2017 23:20:00 1.7 C 4.68 g/m*3 -0.77 C 8.1 km/h
858 08-12-2017 23:25:00 1.7 C 4.68 g/m*3 -0.77 C 8.1 km/h
859 08-12-2017 23:30:00 1.7 C 4.68 g/m*3 -1.21 C 9.7 km/h
860 08-12-2017 23:35:00 1.7 C 4.68 g/m*3 -1.59 C 11.3 km/h
861 08-12-2017 23:40:00 1.7 C 4.68 g/m*3 -1.59 C 11.3 km/h
862 08-12-2017 23:45:00 1.7 C 4.68 g/m*3 -0.77 C 8.1 km/h
863 08-12-2017 23:50:00 1.7 C 4.68 g/m*3 -1.93 C 12.9 km/h
864 08-12-2017 23:55:00 1.7 C 4.68 g/m*3 -1.21 C 9.7 km/h
865 09-12-2017 00:00:00 1.8 C 4.71 g/m*3 -2.11 C 14.5 km/h
866 09-12-2017 00:05:00 1.8 C 4.71 g/m*3 -1.09 C 9.7 km/h
867 09-12-2017 00:10:00 1.8 C 4.71 g/m*3 -0.65 C 8.1 km/h
868 09-12-2017 00:15:00 1.8 C 4.71 g/m*3 -0.65 C 8.1 km/h
869 09-12-2017 00:20:00 1.8 C 4.71 g/m*3 -1.8 C 12.9 km/h
870 09-12-2017 00:25:00 1.8 C 4.71 g/m*3 -0.65 C 8.1 km/h
871 09-12-2017 00:30:00 1.8 C 4.71 g/m*3 1.8 C 4.8 km/h
872 09-12-2017 00:35:00 1.8 C 4.71 g/m*3 -1.09 C 9.7 km/h
873 09-12-2017 00:40:00 1.8 C 4.71 g/m*3 -1.09 C 9.7 km/h
874 09-12-2017 00:45:00 1.8 C 4.71 g/m*3 -0.1 C 6.4 km/h
875 09-12-2017 00:50:00 1.8 C 4.66 g/m*3 -0.65 C 8.1 km/h
Sensor: Nr:Datum:Temp:Abs-Feuchte:Windchill:Wind:
Aussen-T/F 876 09-12-2017 00:55:00 1.7 C 4.63 g/m*3 -1.21 C 9.7 km/h
877 09-12-2017 01:00:00 1.7 C 4.63 g/m*3 -0.77 C 8.1 km/h
878 09-12-2017 01:05:00 1.8 C 4.66 g/m*3 -1.09 C 9.7 km/h
879 09-12-2017 01:10:00 1.8 C 4.66 g/m*3 -1.47 C 11.3 km/h
880 09-12-2017 01:15:00 1.7 C 4.63 g/m*3 1.7 C 4.8 km/h
881 09-12-2017 01:20:00 1.7 C 4.63 g/m*3 -1.59 C 11.3 km/h
882 09-12-2017 01:25:00 1.7 C 4.57 g/m*3 -1.21 C 9.7 km/h
883 09-12-2017 01:30:00 1.8 C 4.6 g/m*3 -0.1 C 6.4 km/h
884 09-12-2017 01:35:00 1.8 C 4.6 g/m*3 -0.1 C 6.4 km/h
885 09-12-2017 01:40:00 1.9 C 4.58 g/m*3 0.01 C 6.4 km/h
886 09-12-2017 01:45:00 1.9 C 4.58 g/m*3 0.01 C 6.4 km/h
887 09-12-2017 01:50:00 1.9 C 4.53 g/m*3 -0.97 C 9.7 km/h
888 09-12-2017 01:55:00 2 C 4.56 g/m*3 0.13 C 6.4 km/h
889 09-12-2017 02:00:00 2 C 4.56 g/m*3 -0.85 C 9.7 km/h
890 09-12-2017 02:05:00 2 C 4.56 g/m*3 -1.23 C 11.3 km/h
891 09-12-2017 02:10:00 2 C 4.56 g/m*3 -0.42 C 8.1 km/h
892 09-12-2017 02:15:00 2 C 4.5 g/m*3 -2.14 C 16.1 km/h
893 09-12-2017 02:20:00 2.1 C 4.53 g/m*3 0.24 C 6.4 km/h
894 09-12-2017 02:25:00 2.1 C 4.53 g/m*3 -1.11 C 11.3 km/h
895 09-12-2017 02:30:00 2 C 4.5 g/m*3 -1.23 C 11.3 km/h
896 09-12-2017 02:35:00 2 C 4.5 g/m*3 -0.42 C 8.1 km/h
897 09-12-2017 02:40:00 2 C 4.5 g/m*3 -0.42 C 8.1 km/h
898 09-12-2017 02:45:00 2 C 4.45 g/m*3 -0.42 C 8.1 km/h
899 09-12-2017 02:50:00 2 C 4.45 g/m*3 -0.42 C 8.1 km/h
900 09-12-2017 02:55:00 1.9 C 4.42 g/m*3 -1.35 C 11.3 km/h
Sensor: Nr:Datum:Temp:Abs-Feuchte:Windchill:Wind:
Aussen-T/F 901 09-12-2017 03:00:00 1.8 C 4.33 g/m*3 -0.65 C 8.1 km/h
902 09-12-2017 03:05:00 1.8 C 4.33 g/m*3 -1.09 C 9.7 km/h
903 09-12-2017 03:10:00 1.7 C 4.36 g/m*3 -1.21 C 9.7 km/h
904 09-12-2017 03:15:00 1.6 C 4.27 g/m*3 -1.33 C 9.7 km/h
905 09-12-2017 03:20:00 1.5 C 4.3 g/m*3 -1.01 C 8.1 km/h
906 09-12-2017 03:25:00 1.4 C 4.27 g/m*3 -1.12 C 8.1 km/h
907 09-12-2017 03:30:00 1.3 C 4.24 g/m*3 -1.24 C 8.1 km/h
908 09-12-2017 03:35:00 1.2 C 4.21 g/m*3 -1.36 C 8.1 km/h
909 09-12-2017 03:40:00 1.2 C 4.21 g/m*3 -2.54 C 12.9 km/h
910 09-12-2017 03:45:00 1.2 C 4.21 g/m*3 -3.13 C 16.1 km/h
911 09-12-2017 03:50:00 1.2 C 4.21 g/m*3 -3.13 C 16.1 km/h
912 09-12-2017 03:55:00 1.2 C 4.21 g/m*3 -2.19 C 11.3 km/h
913 09-12-2017 04:00:00 1.2 C 4.21 g/m*3 -3.39 C 17.7 km/h
914 09-12-2017 04:05:00 1.1 C 4.18 g/m*3 -3.51 C 17.7 km/h
915 09-12-2017 04:10:00 1.2 C 4.21 g/m*3 -3.85 C 20.9 km/h
916 09-12-2017 04:15:00 1.1 C 4.18 g/m*3 -2.97 C 14.5 km/h
917 09-12-2017 04:20:00 1.2 C 4.21 g/m*3 -2.54 C 12.9 km/h
918 09-12-2017 04:25:00 1.1 C 4.18 g/m*3 -2.97 C 14.5 km/h
919 09-12-2017 04:30:00 1.1 C 4.18 g/m*3 -1.92 C 9.7 km/h
920 09-12-2017 04:35:00 1 C 4.15 g/m*3 -1.59 C 8.1 km/h
921 09-12-2017 04:40:00 0.9 C 4.12 g/m*3 -3.76 C 17.7 km/h
922 09-12-2017 04:45:00 0.9 C 4.12 g/m*3 -2.9 C 12.9 km/h
923 09-12-2017 04:50:00 0.9 C 4.12 g/m*3 -2.55 C 11.3 km/h
924 09-12-2017 04:55:00 0.8 C 4.15 g/m*3 -2.28 C 9.7 km/h
925 09-12-2017 05:00:00 0.7 C 4.12 g/m*3 -2.8 C 11.3 km/h
Sensor: Nr:Datum:Temp:Abs-Feuchte:Windchill:Wind:
Aussen-T/F 926 09-12-2017 05:05:00 0.7 C 4.12 g/m*3 0.7 C 4.8 km/h
927 09-12-2017 05:10:00 0.6 C 4.09 g/m*3 -3.87 C 16.1 km/h
928 09-12-2017 05:15:00 0.6 C 4.09 g/m*3 -3.58 C 14.5 km/h
929 09-12-2017 05:20:00 0.7 C 4.12 g/m*3 -2.4 C 9.7 km/h
930 09-12-2017 05:25:00 0.6 C 4.09 g/m*3 -1.49 C 6.4 km/h
931 09-12-2017 05:30:00 0.5 C 4.06 g/m*3 0.5 C 4.8 km/h
932 09-12-2017 05:35:00 0.4 C 4.08 g/m*3 -3.16 C 11.3 km/h
933 09-12-2017 05:40:00 0.4 C 4.08 g/m*3 -1.72 C 6.4 km/h
934 09-12-2017 05:45:00 0.3 C 4.06 g/m*3 -1.84 C 6.4 km/h
935 09-12-2017 05:50:00 0.3 C 4.11 g/m*3 0.3 C 4.8 km/h
936 09-12-2017 05:55:00 0.2 C 4.08 g/m*3 0.2 C 3.2 km/h
937 09-12-2017 06:00:00 0.1 C 4.05 g/m*3 -2.65 C 8.1 km/h
938 09-12-2017 06:05:00 0.1 C 4.05 g/m*3 -3.52 C 11.3 km/h
939 09-12-2017 06:10:00 0.1 C 4.05 g/m*3 -2.07 C 6.4 km/h
940 09-12-2017 06:15:00 0.1 C 4.05 g/m*3 -2.65 C 8.1 km/h
941 09-12-2017 06:20:00 0.1 C 4.05 g/m*3 -3.88 C 12.9 km/h
942 09-12-2017 06:25:00 0.1 C 4.05 g/m*3 0.1 C 4.8 km/h
943 09-12-2017 06:30:00 0.2 C 4.08 g/m*3 -1.95 C 6.4 km/h
944 09-12-2017 06:35:00 0.2 C 4.08 g/m*3 -3.4 C 11.3 km/h
945 09-12-2017 06:40:00 0.2 C 4.08 g/m*3 -3.75 C 12.9 km/h
946 09-12-2017 06:45:00 0.3 C 4.11 g/m*3 -2.42 C 8.1 km/h
947 09-12-2017 06:50:00 0.3 C 4.11 g/m*3 0.3 C 1.6 km/h
948 09-12-2017 06:55:00 0.2 C 4.13 g/m*3 0.2 C 3.2 km/h
949 09-12-2017 07:00:00 0.1 C 4.1 g/m*3 -2.65 C 8.1 km/h
950 09-12-2017 07:05:00 -0.1 C 4.09 g/m*3 -0.1 C 4.8 km/h
Sensor: Nr:Datum:Temp:Abs-Feuchte:Windchill:Wind:
Aussen-T/F 951 09-12-2017 07:10:00 -0.1 C 4.09 g/m*3 -2.89 C 8.1 km/h
952 09-12-2017 07:15:00 -0.2 C 4.11 g/m*3 -3 C 8.1 km/h
953 09-12-2017 07:20:00 -0.1 C 4.19 g/m*3 -3.35 C 9.7 km/h
954 09-12-2017 07:25:00 0 C 4.22 g/m*3 -2.77 C 8.1 km/h
955 09-12-2017 07:30:00 0.1 C 4.24 g/m*3 0.1 C 4.8 km/h
956 09-12-2017 07:35:00 0.2 C 4.22 g/m*3 -3.75 C 12.9 km/h
957 09-12-2017 07:40:00 0.2 C 4.22 g/m*3 -3.4 C 11.3 km/h
958 09-12-2017 07:45:00 0.2 C 4.18 g/m*3 -1.95 C 6.4 km/h
959 09-12-2017 07:50:00 0.2 C 4.18 g/m*3 -3.4 C 11.3 km/h
960 09-12-2017 07:55:00 0.2 C 4.18 g/m*3 -1.95 C 6.4 km/h
961 09-12-2017 08:00:00 0.2 C 4.18 g/m*3 -1.95 C 6.4 km/h
962 09-12-2017 08:05:00 0.2 C 4.18 g/m*3 -2.53 C 8.1 km/h
963 09-12-2017 08:10:00 0.3 C 4.2 g/m*3 -2.42 C 8.1 km/h
964 09-12-2017 08:15:00 0.3 C 4.16 g/m*3 -1.84 C 6.4 km/h
965 09-12-2017 08:20:00 0.3 C 4.16 g/m*3 -2.42 C 8.1 km/h
966 09-12-2017 08:25:00 0.3 C 4.16 g/m*3 -2.88 C 9.7 km/h
967 09-12-2017 08:30:00 0.2 C 4.18 g/m*3 -2.53 C 8.1 km/h
968 09-12-2017 08:35:00 0.2 C 4.18 g/m*3 -2.53 C 8.1 km/h
969 09-12-2017 08:40:00 0.1 C 4.15 g/m*3 -2.07 C 6.4 km/h
970 09-12-2017 08:45:00 0.1 C 4.15 g/m*3 -2.65 C 8.1 km/h
971 09-12-2017 08:50:00 0.2 C 4.18 g/m*3 -2.53 C 8.1 km/h
972 09-12-2017 08:55:00 0.2 C 4.18 g/m*3 -3.4 C 11.3 km/h
973 09-12-2017 09:00:00 0.2 C 4.18 g/m*3 -2.53 C 8.1 km/h
974 09-12-2017 09:05:00 0.3 C 4.16 g/m*3 -2.88 C 9.7 km/h
975 09-12-2017 09:10:00 0.4 C 4.13 g/m*3 -3.83 C 14.5 km/h
Sensor: Nr:Datum:Temp:Abs-Feuchte:Windchill:Wind:
Aussen-T/F 976 09-12-2017 09:15:00 0.4 C 4.13 g/m*3 -2.76 C 9.7 km/h
977 09-12-2017 09:20:00 0.5 C 4.21 g/m*3 -1.6 C 6.4 km/h
978 09-12-2017 09:25:00 0.6 C 4.24 g/m*3 -2.92 C 11.3 km/h
979 09-12-2017 09:30:00 0.6 C 4.24 g/m*3 -2.52 C 9.7 km/h
980 09-12-2017 09:35:00 0.6 C 4.24 g/m*3 -3.27 C 12.9 km/h
981 09-12-2017 09:40:00 0.7 C 4.27 g/m*3 -3.15 C 12.9 km/h
982 09-12-2017 09:45:00 0.7 C 4.27 g/m*3 -3.15 C 12.9 km/h
983 09-12-2017 09:50:00 0.8 C 4.3 g/m*3 -3.02 C 12.9 km/h
984 09-12-2017 09:55:00 0.8 C 4.3 g/m*3 -1.83 C 8.1 km/h
985 09-12-2017 10:00:00 0.8 C 4.25 g/m*3 -3.34 C 14.5 km/h
986 09-12-2017 10:05:00 0.9 C 4.28 g/m*3 -3.5 C 16.1 km/h
987 09-12-2017 10:10:00 1 C 4.31 g/m*3 -3.38 C 16.1 km/h
988 09-12-2017 10:15:00 1.1 C 4.34 g/m*3 -3.25 C 16.1 km/h
989 09-12-2017 10:20:00 1.1 C 4.34 g/m*3 -2.31 C 11.3 km/h
990 09-12-2017 10:25:00 1.2 C 4.37 g/m*3 -2.19 C 11.3 km/h
991 09-12-2017 10:30:00 1.3 C 4.4 g/m*3 -2.72 C 14.5 km/h
992 09-12-2017 10:35:00 1.3 C 4.4 g/m*3 -2.41 C 12.9 km/h
993 09-12-2017 10:40:00 1.3 C 4.4 g/m*3 -2.41 C 12.9 km/h
994 09-12-2017 10:45:00 1.4 C 4.43 g/m*3 -1.57 C 9.7 km/h
995 09-12-2017 10:50:00 1.4 C 4.37 g/m*3 -3.38 C 19.3 km/h
996 09-12-2017 10:55:00 1.5 C 4.4 g/m*3 -2.17 C 12.9 km/h
997 09-12-2017 11:00:00 1.5 C 4.4 g/m*3 -1.45 C 9.7 km/h
998 09-12-2017 11:05:00 1.6 C 4.49 g/m*3 -0.89 C 8.1 km/h
999 09-12-2017 11:10:00 1.5 C 4.46 g/m*3 -1.01 C 8.1 km/h
1000 09-12-2017 11:15:00 1.5 C 4.46 g/m*3 -1.83 C 11.3 km/h
Sensor: Nr:Datum:Temp:Abs-Feuchte:Windchill:Wind:
Aussen-T/F 1001 09-12-2017 11:20:00 1.6 C 4.49 g/m*3 -1.33 C 9.7 km/h
1002 09-12-2017 11:25:00 1.7 C 4.46 g/m*3 -1.93 C 12.9 km/h
1003 09-12-2017 11:30:00 1.7 C 4.52 g/m*3 -1.93 C 12.9 km/h
1004 09-12-2017 11:35:00 1.7 C 4.52 g/m*3 -1.93 C 12.9 km/h
1005 09-12-2017 11:40:00 1.7 C 4.52 g/m*3 -3.43 C 22.5 km/h
1006 09-12-2017 11:45:00 1.7 C 4.46 g/m*3 -1.93 C 12.9 km/h
1007 09-12-2017 11:50:00 1.8 C 4.49 g/m*3 -1.47 C 11.3 km/h
1008 09-12-2017 11:55:00 1.8 C 4.44 g/m*3 -2.38 C 16.1 km/h
1009 09-12-2017 12:00:00 1.8 C 4.55 g/m*3 -1.47 C 11.3 km/h
1010 09-12-2017 12:05:00 1.8 C 4.55 g/m*3 -1.09 C 9.7 km/h
1011 09-12-2017 12:10:00 1.7 C 4.57 g/m*3 -2.23 C 14.5 km/h
1012 09-12-2017 12:15:00 1.6 C 4.65 g/m*3 -2.89 C 17.7 km/h
1013 09-12-2017 12:20:00 1.4 C 4.64 g/m*3 -2.6 C 14.5 km/h
1014 09-12-2017 12:25:00 1.3 C 4.66 g/m*3 -1.69 C 9.7 km/h
1015 09-12-2017 12:30:00 1.2 C 4.63 g/m*3 -3.13 C 16.1 km/h
1016 09-12-2017 12:35:00 1.1 C 4.65 g/m*3 -2.97 C 14.5 km/h
1017 09-12-2017 12:40:00 1.1 C 4.7 g/m*3 -2.66 C 12.9 km/h
1018 09-12-2017 12:45:00 1 C 4.72 g/m*3 -3.09 C 14.5 km/h
1019 09-12-2017 12:50:00 1 C 4.67 g/m*3 -2.78 C 12.9 km/h
1020 09-12-2017 12:55:00 1.1 C 4.7 g/m*3 -1.48 C 8.1 km/h
1021 09-12-2017 13:00:00 1.1 C 4.65 g/m*3 -3.51 C 17.7 km/h
1022 09-12-2017 13:05:00 1.3 C 4.66 g/m*3 -2.07 C 11.3 km/h
1023 09-12-2017 13:10:00 1.4 C 4.69 g/m*3 -3.38 C 19.3 km/h
1024 09-12-2017 13:15:00 1.4 C 4.64 g/m*3 -2.6 C 14.5 km/h
1025 09-12-2017 13:20:00 1.6 C 4.65 g/m*3 -2.05 C 12.9 km/h
Sensor: Nr:Datum:Temp:Abs-Feuchte:Windchill:Wind:
Aussen-T/F 1026 09-12-2017 13:25:00 1.7 C 4.68 g/m*3 -1.93 C 12.9 km/h
1027 09-12-2017 13:30:00 1.7 C 4.63 g/m*3 -3 C 19.3 km/h
1028 09-12-2017 13:35:00 1.8 C 4.6 g/m*3 -2.87 C 19.3 km/h
1029 09-12-2017 13:40:00 1.8 C 4.6 g/m*3 -1.8 C 12.9 km/h
1030 09-12-2017 13:45:00 1.9 C 4.64 g/m*3 -2.51 C 17.7 km/h
1031 09-12-2017 13:50:00 1.9 C 4.64 g/m*3 -1.68 C 12.9 km/h
1032 09-12-2017 13:55:00 1.9 C 4.64 g/m*3 -1.68 C 12.9 km/h
1033 09-12-2017 14:00:00 2 C 4.67 g/m*3 -2.84 C 20.9 km/h
1034 09-12-2017 14:05:00 2.1 C 4.7 g/m*3 -1.11 C 11.3 km/h
1035 09-12-2017 14:10:00 2.1 C 4.7 g/m*3 -1.74 C 14.5 km/h
1036 09-12-2017 14:15:00 2.1 C 4.7 g/m*3 -1.74 C 14.5 km/h
1037 09-12-2017 14:20:00 2.1 C 4.64 g/m*3 -2.5 C 19.3 km/h
1038 09-12-2017 14:25:00 2.1 C 4.64 g/m*3 -2.92 C 22.5 km/h
1039 09-12-2017 14:30:00 2.1 C 4.64 g/m*3 -2.92 C 22.5 km/h
1040 09-12-2017 14:35:00 2 C 4.61 g/m*3 -3.6 C 27.4 km/h
1041 09-12-2017 14:40:00 2 C 4.61 g/m*3 -2.62 C 19.3 km/h
1042 09-12-2017 14:45:00 1.9 C 4.64 g/m*3 -3.17 C 22.5 km/h
1043 09-12-2017 14:50:00 1.9 C 4.58 g/m*3 -2.51 C 17.7 km/h
1044 09-12-2017 14:55:00 1.9 C 4.58 g/m*3 -2.26 C 16.1 km/h
1045 09-12-2017 15:00:00 1.9 C 4.58 g/m*3 -2.75 C 19.3 km/h
1046 09-12-2017 15:05:00 1.9 C 4.58 g/m*3 -2.26 C 16.1 km/h
1047 09-12-2017 15:10:00 2 C 4.61 g/m*3 -2.39 C 17.7 km/h
1048 09-12-2017 15:15:00 2 C 4.61 g/m*3 -2.39 C 17.7 km/h
1049 09-12-2017 15:20:00 2 C 4.56 g/m*3 -2.14 C 16.1 km/h
1050 09-12-2017 15:25:00 1.9 C 4.53 g/m*3 -2.26 C 16.1 km/h
Sensor: Nr:Datum:Temp:Abs-Feuchte:Windchill:Wind:
Aussen-T/F 1051 09-12-2017 15:30:00 2 C 4.56 g/m*3 -2.84 C 20.9 km/h
1052 09-12-2017 15:35:00 2.1 C 4.53 g/m*3 -3.11 C 24.1 km/h
1053 09-12-2017 15:40:00 2.2 C 4.56 g/m*3 -2.59 C 20.9 km/h
1054 09-12-2017 15:45:00 2.1 C 4.53 g/m*3 -2.01 C 16.1 km/h
1055 09-12-2017 15:50:00 2.1 C 4.53 g/m*3 -1.44 C 12.9 km/h
1056 09-12-2017 15:55:00 2 C 4.5 g/m*3 -1.86 C 14.5 km/h
1057 09-12-2017 16:00:00 1.9 C 4.47 g/m*3 -0.97 C 9.7 km/h
1058 09-12-2017 16:05:00 1.8 C 4.49 g/m*3 -2.64 C 17.7 km/h
1059 09-12-2017 16:10:00 1.8 C 4.49 g/m*3 -1.47 C 11.3 km/h
1060 09-12-2017 16:15:00 1.8 C 4.49 g/m*3 -1.09 C 9.7 km/h
1061 09-12-2017 16:20:00 1.8 C 4.49 g/m*3 -0.1 C 6.4 km/h
1062 09-12-2017 16:25:00 1.8 C 4.49 g/m*3 -1.47 C 11.3 km/h
1063 09-12-2017 16:30:00 1.8 C 4.49 g/m*3 -0.65 C 8.1 km/h
1064 09-12-2017 16:35:00 1.8 C 4.44 g/m*3 -1.8 C 12.9 km/h
1065 09-12-2017 16:40:00 1.8 C 4.49 g/m*3 -1.09 C 9.7 km/h
1066 09-12-2017 16:45:00 1.7 C 4.46 g/m*3 -1.21 C 9.7 km/h
1067 09-12-2017 16:50:00 1.7 C 4.46 g/m*3 -1.21 C 9.7 km/h
1068 09-12-2017 16:55:00 1.7 C 4.46 g/m*3 -0.77 C 8.1 km/h
1069 09-12-2017 17:00:00 1.7 C 4.46 g/m*3 -1.59 C 11.3 km/h
1070 09-12-2017 17:05:00 1.6 C 4.43 g/m*3 -2.63 C 16.1 km/h
1071 09-12-2017 17:10:00 1.6 C 4.43 g/m*3 -2.05 C 12.9 km/h
1072 09-12-2017 17:15:00 1.7 C 4.41 g/m*3 -2.51 C 16.1 km/h
1073 09-12-2017 17:20:00 1.6 C 4.43 g/m*3 -1.33 C 9.7 km/h
1074 09-12-2017 17:25:00 1.6 C 4.43 g/m*3 -1.71 C 11.3 km/h
1075 09-12-2017 17:30:00 1.6 C 4.43 g/m*3 -2.35 C 14.5 km/h
Sensor: Nr:Datum:Temp:Abs-Feuchte:Windchill:Wind:
Aussen-T/F 1076 09-12-2017 17:35:00 1.6 C 4.38 g/m*3 -2.63 C 16.1 km/h
1077 09-12-2017 17:40:00 1.5 C 4.35 g/m*3 -1.45 C 9.7 km/h
1078 09-12-2017 17:45:00 1.5 C 4.35 g/m*3 -2.48 C 14.5 km/h
1079 09-12-2017 17:50:00 1.5 C 4.3 g/m*3 -2.17 C 12.9 km/h
1080 09-12-2017 17:55:00 1.4 C 4.32 g/m*3 -1.95 C 11.3 km/h
1081 09-12-2017 18:00:00 1.4 C 4.32 g/m*3 -1.95 C 11.3 km/h
1082 09-12-2017 18:05:00 1.4 C 4.27 g/m*3 -2.29 C 12.9 km/h
1083 09-12-2017 18:10:00 1.5 C 4.3 g/m*3 -3.88 C 24.1 km/h
1084 09-12-2017 18:15:00 1.5 C 4.3 g/m*3 -1.45 C 9.7 km/h
1085 09-12-2017 18:20:00 1.4 C 4.27 g/m*3 -2.6 C 14.5 km/h
1086 09-12-2017 18:25:00 1.4 C 4.32 g/m*3 -1.57 C 9.7 km/h
1087 09-12-2017 18:30:00 1.3 C 4.29 g/m*3 -1.69 C 9.7 km/h
1088 09-12-2017 18:35:00 1.3 C 4.29 g/m*3 -1.69 C 9.7 km/h
1089 09-12-2017 18:40:00 1.3 C 4.24 g/m*3 -2.07 C 11.3 km/h
1090 09-12-2017 18:45:00 1.2 C 4.26 g/m*3 -2.19 C 11.3 km/h
1091 09-12-2017 18:50:00 1.2 C 4.26 g/m*3 -3.13 C 16.1 km/h
1092 09-12-2017 18:55:00 1.2 C 4.26 g/m*3 -1.8 C 9.7 km/h
1093 09-12-2017 19:00:00 1.1 C 4.23 g/m*3 -2.97 C 14.5 km/h
1094 09-12-2017 19:05:00 1.1 C 4.29 g/m*3 -2.31 C 11.3 km/h
1095 09-12-2017 19:10:00 1.1 C 4.29 g/m*3 -2.66 C 12.9 km/h
1096 09-12-2017 19:15:00 1 C 4.26 g/m*3 -2.78 C 12.9 km/h
1097 09-12-2017 19:20:00 1.1 C 4.29 g/m*3 -3.51 C 17.7 km/h
1098 09-12-2017 19:25:00 1.1 C 4.29 g/m*3 -3.51 C 17.7 km/h
1099 09-12-2017 19:30:00 1.1 C 4.29 g/m*3 -2.66 C 12.9 km/h
1100 09-12-2017 19:35:00 1.1 C 4.29 g/m*3 -3.51 C 17.7 km/h
Sensor: Nr:Datum:Temp:Abs-Feuchte:Windchill:Wind:
Aussen-T/F 1101 09-12-2017 19:40:00 1.1 C 4.34 g/m*3 -1.92 C 9.7 km/h
1102 09-12-2017 19:45:00 1.1 C 4.34 g/m*3 -3.25 C 16.1 km/h
1103 09-12-2017 19:50:00 1.1 C 4.34 g/m*3 -2.97 C 14.5 km/h
1104 09-12-2017 19:55:00 1.1 C 4.34 g/m*3 -1.92 C 9.7 km/h
1105 09-12-2017 20:00:00 1 C 4.31 g/m*3 -1.59 C 8.1 km/h
1106 09-12-2017 20:05:00 0.9 C 4.33 g/m*3 -2.16 C 9.7 km/h
1107 09-12-2017 20:10:00 0.9 C 4.33 g/m*3 -2.55 C 11.3 km/h
1108 09-12-2017 20:15:00 0.9 C 4.33 g/m*3 -2.9 C 12.9 km/h
1109 09-12-2017 20:20:00 1 C 4.36 g/m*3 -1.59 C 8.1 km/h
1110 09-12-2017 20:25:00 1 C 4.36 g/m*3 -2.43 C 11.3 km/h
1111 09-12-2017 20:30:00 1.1 C 4.39 g/m*3 -3.25 C 16.1 km/h
1112 09-12-2017 20:35:00 1.1 C 4.39 g/m*3 -2.66 C 12.9 km/h
1113 09-12-2017 20:40:00 1.1 C 4.39 g/m*3 -1.92 C 9.7 km/h
1114 09-12-2017 20:45:00 1.2 C 4.47 g/m*3 -1.36 C 8.1 km/h
1115 09-12-2017 20:50:00 1.2 C 4.42 g/m*3 -1.8 C 9.7 km/h
1116 09-12-2017 20:55:00 1.2 C 4.47 g/m*3 -2.54 C 12.9 km/h
1117 09-12-2017 21:00:00 1.2 C 4.47 g/m*3 -1.8 C 9.7 km/h
1118 09-12-2017 21:05:00 1.2 C 4.47 g/m*3 -1.8 C 9.7 km/h
1119 09-12-2017 21:10:00 1.2 C 4.47 g/m*3 1.2 C 3.2 km/h
1120 09-12-2017 21:15:00 1.2 C 4.47 g/m*3 -0.8 C 6.4 km/h
1121 09-12-2017 21:20:00 1.2 C 4.47 g/m*3 1.2 C 4.8 km/h
1122 09-12-2017 21:25:00 1.2 C 4.47 g/m*3 -2.19 C 11.3 km/h
1123 09-12-2017 21:30:00 1.3 C 4.5 g/m*3 1.3 C 4.8 km/h
1124 09-12-2017 21:35:00 1.3 C 4.5 g/m*3 -1.69 C 9.7 km/h
1125 09-12-2017 21:40:00 1.3 C 4.5 g/m*3 -0.68 C 6.4 km/h
Sensor: Nr:Datum:Temp:Abs-Feuchte:Windchill:Wind:
Aussen-T/F 1126 09-12-2017 21:45:00 1.3 C 4.56 g/m*3 -0.68 C 6.4 km/h
1127 09-12-2017 21:50:00 1.3 C 4.56 g/m*3 -1.24 C 8.1 km/h
1128 09-12-2017 21:55:00 1.3 C 4.56 g/m*3 -1.69 C 9.7 km/h
1129 09-12-2017 22:00:00 1.4 C 4.59 g/m*3 -1.12 C 8.1 km/h
1130 09-12-2017 22:05:00 1.4 C 4.59 g/m*3 -2.29 C 12.9 km/h
1131 09-12-2017 22:10:00 1.4 C 4.59 g/m*3 -1.12 C 8.1 km/h
1132 09-12-2017 22:15:00 1.4 C 4.59 g/m*3 1.4 C 4.8 km/h
1133 09-12-2017 22:20:00 1.4 C 4.59 g/m*3 -1.57 C 9.7 km/h
1134 09-12-2017 22:25:00 1.5 C 4.62 g/m*3 -1.83 C 11.3 km/h
1135 09-12-2017 22:30:00 1.6 C 4.7 g/m*3 -1.33 C 9.7 km/h
1136 09-12-2017 22:35:00 1.6 C 4.7 g/m*3 -1.71 C 11.3 km/h
1137 09-12-2017 22:40:00 1.6 C 4.7 g/m*3 -0.33 C 6.4 km/h
1138 09-12-2017 22:45:00 1.6 C 4.7 g/m*3 -0.33 C 6.4 km/h
1139 09-12-2017 22:50:00 1.6 C 4.76 g/m*3 -0.89 C 8.1 km/h
1140 09-12-2017 22:55:00 1.6 C 4.76 g/m*3 -0.33 C 6.4 km/h
1141 09-12-2017 23:00:00 1.6 C 4.76 g/m*3 -1.33 C 9.7 km/h
1142 09-12-2017 23:05:00 1.6 C 4.76 g/m*3 -1.71 C 11.3 km/h
1143 09-12-2017 23:10:00 1.6 C 4.76 g/m*3 -2.63 C 16.1 km/h
1144 09-12-2017 23:15:00 1.6 C 4.76 g/m*3 -1.33 C 9.7 km/h
1145 09-12-2017 23:20:00 1.7 C 4.79 g/m*3 -2.23 C 14.5 km/h
1146 09-12-2017 23:25:00 1.7 C 4.79 g/m*3 -1.21 C 9.7 km/h
1147 09-12-2017 23:30:00 1.7 C 4.79 g/m*3 -2.76 C 17.7 km/h
1148 09-12-2017 23:35:00 1.7 C 4.74 g/m*3 -1.93 C 12.9 km/h
1149 09-12-2017 23:40:00 1.6 C 4.7 g/m*3 1.6 C 4.8 km/h
1150 09-12-2017 23:45:00 1.6 C 4.7 g/m*3 -1.33 C 9.7 km/h
Sensor: Nr:Datum:Temp:Abs-Feuchte:Windchill:Wind:
Aussen-T/F 1151 09-12-2017 23:50:00 1.4 C 4.64 g/m*3 -1.12 C 8.1 km/h
1152 09-12-2017 23:55:00 1.4 C 4.64 g/m*3 -2.29 C 12.9 km/h
1153 10-12-2017 00:00:00 1.3 C 4.61 g/m*3 -1.69 C 9.7 km/h
1154 10-12-2017 00:05:00 1.3 C 4.61 g/m*3 -2.07 C 11.3 km/h
1155 10-12-2017 00:10:00 1.2 C 4.58 g/m*3 -2.19 C 11.3 km/h
1156 10-12-2017 00:15:00 1.2 C 4.58 g/m*3 -2.85 C 14.5 km/h
1157 10-12-2017 00:20:00 1.2 C 4.53 g/m*3 -3.39 C 17.7 km/h
1158 10-12-2017 00:25:00 1.2 C 4.53 g/m*3 -1.8 C 9.7 km/h
1159 10-12-2017 00:30:00 1.2 C 4.53 g/m*3 -2.54 C 12.9 km/h
1160 10-12-2017 00:35:00 1.2 C 4.47 g/m*3 -2.54 C 12.9 km/h
1161 10-12-2017 00:40:00 1.2 C 4.47 g/m*3 -2.54 C 12.9 km/h
1162 10-12-2017 00:45:00 1.2 C 4.47 g/m*3 -2.85 C 14.5 km/h
1163 10-12-2017 00:50:00 1.2 C 4.47 g/m*3 -2.54 C 12.9 km/h
1164 10-12-2017 00:55:00 1.2 C 4.47 g/m*3 -1.8 C 9.7 km/h
1165 10-12-2017 01:00:00 1.2 C 4.47 g/m*3 -2.19 C 11.3 km/h
1166 10-12-2017 01:05:00 1.2 C 4.47 g/m*3 -2.85 C 14.5 km/h
1167 10-12-2017 01:10:00 1.3 C 4.45 g/m*3 -2.41 C 12.9 km/h
1168 10-12-2017 01:15:00 1.3 C 4.45 g/m*3 -3.5 C 19.3 km/h
1169 10-12-2017 01:20:00 1.3 C 4.45 g/m*3 -3.5 C 19.3 km/h
1170 10-12-2017 01:25:00 1.4 C 4.43 g/m*3 -2.6 C 14.5 km/h
1171 10-12-2017 01:30:00 1.4 C 4.43 g/m*3 -1.95 C 11.3 km/h
1172 10-12-2017 01:35:00 1.4 C 4.43 g/m*3 -2.88 C 16.1 km/h
1173 10-12-2017 01:40:00 1.5 C 4.46 g/m*3 -2.48 C 14.5 km/h
1174 10-12-2017 01:45:00 1.5 C 4.46 g/m*3 -2.48 C 14.5 km/h
1175 10-12-2017 01:50:00 1.4 C 4.43 g/m*3 -1.57 C 9.7 km/h
Sensor: Nr:Datum:Temp:Abs-Feuchte:Windchill:Wind:
Aussen-T/F 1176 10-12-2017 01:55:00 1.4 C 4.43 g/m*3 -2.6 C 14.5 km/h
1177 10-12-2017 02:00:00 1.4 C 4.43 g/m*3 -2.88 C 16.1 km/h
1178 10-12-2017 02:05:00 1.4 C 4.43 g/m*3 -2.6 C 14.5 km/h
1179 10-12-2017 02:10:00 1.5 C 4.46 g/m*3 -2.48 C 14.5 km/h
1180 10-12-2017 02:15:00 1.5 C 4.46 g/m*3 -2.76 C 16.1 km/h
1181 10-12-2017 02:20:00 1.6 C 4.49 g/m*3 -2.35 C 14.5 km/h
1182 10-12-2017 02:25:00 1.6 C 4.49 g/m*3 -2.89 C 17.7 km/h
1183 10-12-2017 02:30:00 1.6 C 4.49 g/m*3 -1.71 C 11.3 km/h
1184 10-12-2017 02:35:00 1.6 C 4.49 g/m*3 -3.12 C 19.3 km/h
1185 10-12-2017 02:40:00 1.6 C 4.49 g/m*3 -2.35 C 14.5 km/h
1186 10-12-2017 02:45:00 1.6 C 4.54 g/m*3 -1.71 C 11.3 km/h
1187 10-12-2017 02:50:00 1.6 C 4.49 g/m*3 -2.05 C 12.9 km/h
1188 10-12-2017 02:55:00 1.6 C 4.54 g/m*3 -2.05 C 12.9 km/h
1189 10-12-2017 03:00:00 1.6 C 4.54 g/m*3 -1.33 C 9.7 km/h
1190 10-12-2017 03:05:00 1.6 C 4.54 g/m*3 -0.89 C 8.1 km/h
1191 10-12-2017 03:10:00 1.5 C 4.51 g/m*3 -2.17 C 12.9 km/h
1192 10-12-2017 03:15:00 1.6 C 4.54 g/m*3 -1.71 C 11.3 km/h
1193 10-12-2017 03:20:00 1.6 C 4.54 g/m*3 -1.71 C 11.3 km/h
1194 10-12-2017 03:25:00 1.6 C 4.54 g/m*3 -1.71 C 11.3 km/h
1195 10-12-2017 03:30:00 1.7 C 4.57 g/m*3 -0.77 C 8.1 km/h
1196 10-12-2017 03:35:00 1.7 C 4.57 g/m*3 -1.93 C 12.9 km/h
1197 10-12-2017 03:40:00 1.7 C 4.57 g/m*3 -1.93 C 12.9 km/h
1198 10-12-2017 03:45:00 1.7 C 4.57 g/m*3 -1.59 C 11.3 km/h
1199 10-12-2017 03:50:00 1.7 C 4.57 g/m*3 -1.59 C 11.3 km/h
1200 10-12-2017 03:55:00 1.7 C 4.63 g/m*3 -1.59 C 11.3 km/h
Sensor: Nr:Datum:Temp:Abs-Feuchte:Windchill:Wind:
Aussen-T/F 1201 10-12-2017 04:00:00 1.7 C 4.63 g/m*3 -1.21 C 9.7 km/h
1202 10-12-2017 04:05:00 1.7 C 4.63 g/m*3 -1.93 C 12.9 km/h
1203 10-12-2017 04:10:00 1.7 C 4.63 g/m*3 -2.23 C 14.5 km/h
1204 10-12-2017 04:15:00 1.7 C 4.63 g/m*3 -3 C 19.3 km/h
1205 10-12-2017 04:20:00 1.7 C 4.57 g/m*3 -1.93 C 12.9 km/h
1206 10-12-2017 04:25:00 1.8 C 4.6 g/m*3 -2.11 C 14.5 km/h
1207 10-12-2017 04:30:00 1.8 C 4.6 g/m*3 -2.38 C 16.1 km/h
1208 10-12-2017 04:35:00 1.8 C 4.6 g/m*3 -1.8 C 12.9 km/h
1209 10-12-2017 04:40:00 1.8 C 4.6 g/m*3 -1.8 C 12.9 km/h
1210 10-12-2017 04:45:00 1.8 C 4.6 g/m*3 -2.38 C 16.1 km/h
1211 10-12-2017 04:50:00 1.8 C 4.6 g/m*3 -2.87 C 19.3 km/h
1212 10-12-2017 04:55:00 1.8 C 4.6 g/m*3 -2.11 C 14.5 km/h
1213 10-12-2017 05:00:00 1.8 C 4.6 g/m*3 -2.11 C 14.5 km/h
1214 10-12-2017 05:05:00 1.8 C 4.6 g/m*3 -2.38 C 16.1 km/h
1215 10-12-2017 05:10:00 1.8 C 4.6 g/m*3 -1.8 C 12.9 km/h
1216 10-12-2017 05:15:00 1.8 C 4.6 g/m*3 -1.8 C 12.9 km/h
1217 10-12-2017 05:20:00 1.8 C 4.6 g/m*3 -1.47 C 11.3 km/h
1218 10-12-2017 05:25:00 1.8 C 4.6 g/m*3 -1.8 C 12.9 km/h
1219 10-12-2017 05:30:00 1.8 C 4.6 g/m*3 -2.11 C 14.5 km/h
1220 10-12-2017 05:35:00 1.8 C 4.6 g/m*3 -1.09 C 9.7 km/h
1221 10-12-2017 05:40:00 1.8 C 4.6 g/m*3 -1.47 C 11.3 km/h
1222 10-12-2017 05:45:00 1.8 C 4.66 g/m*3 -1.47 C 11.3 km/h
1223 10-12-2017 05:50:00 1.7 C 4.63 g/m*3 -0.22 C 6.4 km/h
1224 10-12-2017 05:55:00 1.7 C 4.63 g/m*3 1.7 C 3.2 km/h
1225 10-12-2017 06:00:00 1.7 C 4.63 g/m*3 1.7 C 4.8 km/h
Sensor: Nr:Datum:Temp:Abs-Feuchte:Windchill:Wind:
Aussen-T/F 1226 10-12-2017 06:05:00 1.7 C 4.63 g/m*3 -0.22 C 6.4 km/h
1227 10-12-2017 06:10:00 1.7 C 4.63 g/m*3 1.7 C 3.2 km/h
1228 10-12-2017 06:15:00 1.6 C 4.6 g/m*3 -0.89 C 8.1 km/h
1229 10-12-2017 06:20:00 1.6 C 4.6 g/m*3 -0.89 C 8.1 km/h
1230 10-12-2017 06:25:00 1.6 C 4.6 g/m*3 -0.89 C 8.1 km/h
1231 10-12-2017 06:30:00 1.7 C 4.63 g/m*3 -1.21 C 9.7 km/h
1232 10-12-2017 06:35:00 1.7 C 4.63 g/m*3 1.7 C 4.8 km/h
1233 10-12-2017 06:40:00 1.7 C 4.63 g/m*3 -0.77 C 8.1 km/h
1234 10-12-2017 06:45:00 1.7 C 4.63 g/m*3 -1.93 C 12.9 km/h
1235 10-12-2017 06:50:00 1.7 C 4.63 g/m*3 -0.77 C 8.1 km/h
1236 10-12-2017 06:55:00 1.7 C 4.63 g/m*3 -1.21 C 9.7 km/h
1237 10-12-2017 07:00:00 1.7 C 4.63 g/m*3 1.7 C 4.8 km/h
1238 10-12-2017 07:05:00 1.7 C 4.63 g/m*3 -0.22 C 6.4 km/h
1239 10-12-2017 07:10:00 1.6 C 4.6 g/m*3 1.6 C 3.2 km/h
1240 10-12-2017 07:15:00 1.4 C 4.59 g/m*3 1.4 C 3.2 km/h
1241 10-12-2017 07:20:00 1.4 C 4.59 g/m*3 1.4 C 3.2 km/h
1242 10-12-2017 07:25:00 1.3 C 4.56 g/m*3 1.3 C 3.2 km/h
1243 10-12-2017 07:30:00 1.2 C 4.58 g/m*3 1.2 C 1.6 km/h
1244 10-12-2017 07:35:00 0.9 C 4.48 g/m*3 0.9 C 1.6 km/h
1245 10-12-2017 07:40:00 0.7 C 4.42 g/m*3 0.7 C 0 km/h
1246 10-12-2017 07:45:00 0.5 C 4.41 g/m*3 0.5 C 1.6 km/h
1247 10-12-2017 07:50:00 0.3 C 4.4 g/m*3 -1.84 C 6.4 km/h
1248 10-12-2017 07:55:00 0.4 C 4.48 g/m*3 -2.3 C 8.1 km/h
1249 10-12-2017 08:00:00 0.6 C 4.54 g/m*3 0.6 C 4.8 km/h
1250 10-12-2017 08:05:00 0.7 C 4.53 g/m*3 -1.37 C 6.4 km/h
Sensor: Nr:Datum:Temp:Abs-Feuchte:Windchill:Wind:
Aussen-T/F 1251 10-12-2017 08:10:00 0.7 C 4.53 g/m*3 -1.37 C 6.4 km/h
1252 10-12-2017 08:15:00 0.8 C 4.56 g/m*3 0.8 C 4.8 km/h
1253 10-12-2017 08:20:00 0.8 C 4.56 g/m*3 0.8 C 3.2 km/h
1254 10-12-2017 08:25:00 0.8 C 4.56 g/m*3 0.8 C 3.2 km/h
1255 10-12-2017 08:30:00 1 C 4.62 g/m*3 1 C 4.8 km/h
1256 10-12-2017 08:35:00 1.1 C 4.65 g/m*3 1.1 C 1.6 km/h
1257 10-12-2017 08:40:00 1.1 C 4.65 g/m*3 1.1 C 3.2 km/h
1258 10-12-2017 08:45:00 1.1 C 4.65 g/m*3 1.1 C 1.6 km/h
1259 10-12-2017 08:50:00 1.2 C 4.63 g/m*3 1.2 C 3.2 km/h
1260 10-12-2017 08:55:00 1.3 C 4.66 g/m*3 1.3 C 3.2 km/h
1261 10-12-2017 09:00:00 1.3 C 4.66 g/m*3 1.3 C 1.6 km/h
1262 10-12-2017 09:05:00 1.4 C 4.64 g/m*3 -1.57 C 9.7 km/h
1263 10-12-2017 09:10:00 1.4 C 4.64 g/m*3 1.4 C 3.2 km/h
1264 10-12-2017 09:15:00 1.5 C 4.67 g/m*3 1.5 C 4.8 km/h
1265 10-12-2017 09:20:00 1.6 C 4.65 g/m*3 1.6 C 0 km/h
1266 10-12-2017 09:25:00 1.6 C 4.65 g/m*3 1.6 C 1.6 km/h
1267 10-12-2017 09:30:00 1.6 C 4.65 g/m*3 1.6 C 3.2 km/h
1268 10-12-2017 09:35:00 1.7 C 4.68 g/m*3 1.7 C 0 km/h
1269 10-12-2017 09:40:00 1.7 C 4.68 g/m*3 1.7 C 1.6 km/h
1270 10-12-2017 09:45:00 1.7 C 4.68 g/m*3 1.7 C 4.8 km/h
1271 10-12-2017 09:50:00 1.7 C 4.68 g/m*3 1.7 C 3.2 km/h
1272 10-12-2017 09:55:00 1.7 C 4.63 g/m*3 1.7 C 4.8 km/h
1273 10-12-2017 10:00:00 1.7 C 4.63 g/m*3 -0.22 C 6.4 km/h
1274 10-12-2017 10:05:00 1.7 C 4.57 g/m*3 1.7 C 3.2 km/h
1275 10-12-2017 10:10:00 1.7 C 4.52 g/m*3 -0.22 C 6.4 km/h
Sensor: Nr:Datum:Temp:Abs-Feuchte:Windchill:Wind:
Aussen-T/F 1276 10-12-2017 10:15:00 1.8 C 4.55 g/m*3 1.8 C 4.8 km/h
1277 10-12-2017 10:20:00 1.8 C 4.55 g/m*3 1.8 C 3.2 km/h
1278 10-12-2017 10:25:00 1.8 C 4.55 g/m*3 1.8 C 3.2 km/h
1279 10-12-2017 10:30:00 1.8 C 4.55 g/m*3 1.8 C 3.2 km/h
1280 10-12-2017 10:35:00 1.8 C 4.6 g/m*3 1.8 C 4.8 km/h
1281 10-12-2017 10:40:00 1.7 C 4.63 g/m*3 1.7 C 3.2 km/h
1282 10-12-2017 10:45:00 1.6 C 4.7 g/m*3 1.6 C 3.2 km/h
1283 10-12-2017 10:50:00 1.3 C 4.66 g/m*3 1.3 C 4.8 km/h
1284 10-12-2017 10:55:00 1.2 C 4.68 g/m*3 1.2 C 4.8 km/h
1285 10-12-2017 11:00:00 1.1 C 4.7 g/m*3 -1.48 C 8.1 km/h
1286 10-12-2017 11:05:00 0.9 C 4.69 g/m*3 -1.14 C 6.4 km/h
1287 10-12-2017 11:10:00 0.8 C 4.66 g/m*3 0.8 C 4.8 km/h
1288 10-12-2017 11:15:00 0.7 C 4.68 g/m*3 0.7 C 3.2 km/h
1289 10-12-2017 11:20:00 0.6 C 4.65 g/m*3 -1.49 C 6.4 km/h
1290 10-12-2017 11:25:00 0.6 C 4.7 g/m*3 0.6 C 3.2 km/h
1291 10-12-2017 11:30:00 0.4 C 4.63 g/m*3 -1.72 C 6.4 km/h
1292 10-12-2017 11:35:00 0.4 C 4.63 g/m*3 0.4 C 3.2 km/h
1293 10-12-2017 11:40:00 0.3 C 4.6 g/m*3 0.3 C 4.8 km/h
1294 10-12-2017 11:45:00 0.3 C 4.65 g/m*3 -2.88 C 9.7 km/h
1295 10-12-2017 11:50:00 0.3 C 4.65 g/m*3 -1.84 C 6.4 km/h
1296 10-12-2017 11:55:00 0.2 C 4.62 g/m*3 -2.53 C 8.1 km/h
1297 10-12-2017 12:00:00 0.2 C 4.62 g/m*3 -4.08 C 14.5 km/h
1298 10-12-2017 12:05:00 0.1 C 4.59 g/m*3 -4.76 C 17.7 km/h
1299 10-12-2017 12:10:00 0.1 C 4.54 g/m*3 -2.07 C 6.4 km/h
1300 10-12-2017 12:15:00 0.1 C 4.54 g/m*3 -3.12 C 9.7 km/h
Sensor: Nr:Datum:Temp:Abs-Feuchte:Windchill:Wind:
Aussen-T/F 1301 10-12-2017 12:20:00 0 C 4.51 g/m*3 0 C 4.8 km/h
1302 10-12-2017 12:25:00 -0.1 C 4.47 g/m*3 -0.1 C 4.8 km/h
1303 10-12-2017 12:30:00 -0.1 C 4.47 g/m*3 -0.1 C 4.8 km/h
1304 10-12-2017 12:35:00 -0.1 C 4.52 g/m*3 -0.1 C 4.8 km/h
1305 10-12-2017 12:40:00 -0.1 C 4.52 g/m*3 -0.1 C 3.2 km/h
1306 10-12-2017 12:45:00 -0.1 C 4.52 g/m*3 -0.1 C 4.8 km/h
1307 10-12-2017 12:50:00 -0.1 C 4.52 g/m*3 -2.89 C 8.1 km/h
1308 10-12-2017 12:55:00 -0.1 C 4.52 g/m*3 -3.35 C 9.7 km/h
1309 10-12-2017 13:00:00 -0.1 C 4.52 g/m*3 -3.76 C 11.3 km/h
1310 10-12-2017 13:05:00 -0.2 C 4.49 g/m*3 -3.47 C 9.7 km/h
1311 10-12-2017 13:10:00 -0.2 C 4.49 g/m*3 -3.47 C 9.7 km/h
1312 10-12-2017 13:15:00 -0.2 C 4.49 g/m*3 -3.88 C 11.3 km/h
1313 10-12-2017 13:20:00 -0.2 C 4.49 g/m*3 -0.2 C 4.8 km/h
1314 10-12-2017 13:25:00 -0.2 C 4.49 g/m*3 -0.2 C 3.2 km/h
1315 10-12-2017 13:30:00 -0.2 C 4.49 g/m*3 -2.41 C 6.4 km/h
1316 10-12-2017 13:35:00 -0.1 C 4.57 g/m*3 -0.1 C 4.8 km/h
1317 10-12-2017 13:40:00 -0.1 C 4.57 g/m*3 -2.3 C 6.4 km/h
1318 10-12-2017 13:45:00 -0.1 C 4.57 g/m*3 -0.1 C 4.8 km/h
1319 10-12-2017 13:50:00 -0.1 C 4.57 g/m*3 -0.1 C 1.6 km/h
1320 10-12-2017 13:55:00 -0.1 C 4.57 g/m*3 -0.1 C 3.2 km/h
1321 10-12-2017 14:00:00 0 C 4.6 g/m*3 -2.18 C 6.4 km/h
1322 10-12-2017 14:05:00 0 C 4.6 g/m*3 -2.77 C 8.1 km/h
1323 10-12-2017 14:10:00 0 C 4.6 g/m*3 0 C 3.2 km/h
1324 10-12-2017 14:15:00 0.1 C 4.63 g/m*3 0.1 C 1.6 km/h
1325 10-12-2017 14:20:00 0.1 C 4.63 g/m*3 0.1 C 0 km/h
Sensor: Nr:Datum:Temp:Abs-Feuchte:Windchill:Wind:
Aussen-T/F 1326 10-12-2017 14:25:00 0.1 C 4.63 g/m*3 0.1 C 3.2 km/h
1327 10-12-2017 14:30:00 0.2 C 4.67 g/m*3 0.2 C 0 km/h
1328 10-12-2017 14:35:00 0.2 C 4.67 g/m*3 0.2 C 0 km/h
1329 10-12-2017 14:40:00 0.2 C 4.67 g/m*3 0.2 C 1.6 km/h
1330 10-12-2017 14:45:00 0.2 C 4.67 g/m*3 0.2 C 1.6 km/h
1331 10-12-2017 14:50:00 0.3 C 4.7 g/m*3 0.3 C 0 km/h
1332 10-12-2017 14:55:00 0.3 C 4.7 g/m*3 0.3 C 0 km/h
1333 10-12-2017 15:00:00 0.3 C 4.7 g/m*3 0.3 C 0 km/h
1334 10-12-2017 15:05:00 0.4 C 4.73 g/m*3 0.4 C 0 km/h
1335 10-12-2017 15:10:00 0.4 C 4.73 g/m*3 0.4 C 0 km/h
1336 10-12-2017 15:15:00 0.5 C 4.76 g/m*3 0.5 C 0 km/h
1337 10-12-2017 15:20:00 0.6 C 4.8 g/m*3 0.6 C 0 km/h
1338 10-12-2017 15:25:00 0.6 C 4.8 g/m*3 0.6 C 0 km/h
1339 10-12-2017 15:30:00 0.6 C 4.8 g/m*3 0.6 C 0 km/h
1340 10-12-2017 15:35:00 0.6 C 4.8 g/m*3 0.6 C 0 km/h
1341 10-12-2017 15:40:00 0.6 C 4.8 g/m*3 0.6 C 0 km/h
1342 10-12-2017 15:45:00 0.6 C 4.8 g/m*3 0.6 C 0 km/h
1343 10-12-2017 15:50:00 0.6 C 4.8 g/m*3 0.6 C 0 km/h
1344 10-12-2017 15:55:00 0.6 C 4.8 g/m*3 0.6 C 0 km/h
1345 10-12-2017 16:00:00 0.6 C 4.8 g/m*3 0.6 C 0 km/h
1346 10-12-2017 16:05:00 0.7 C 4.83 g/m*3 0.7 C 0 km/h
1347 10-12-2017 16:10:00 0.7 C 4.83 g/m*3 0.7 C 0 km/h
1348 10-12-2017 16:15:00 0.7 C 4.83 g/m*3 0.7 C 0 km/h
1349 10-12-2017 16:20:00 0.7 C 4.83 g/m*3 0.7 C 0 km/h
1350 10-12-2017 16:25:00 0.7 C 4.83 g/m*3 0.7 C 0 km/h
Sensor: Nr:Datum:Temp:Abs-Feuchte:Windchill:Wind:
Aussen-T/F 1351 10-12-2017 16:30:00 0.7 C 4.83 g/m*3 0.7 C 0 km/h
1352 10-12-2017 16:35:00 0.7 C 4.83 g/m*3 0.7 C 0 km/h
1353 10-12-2017 16:40:00 0.6 C 4.8 g/m*3 0.6 C 0 km/h
1354 10-12-2017 16:45:00 0.6 C 4.8 g/m*3 0.6 C 0 km/h
1355 10-12-2017 16:50:00 0.6 C 4.8 g/m*3 0.6 C 0 km/h
1356 10-12-2017 16:55:00 0.6 C 4.8 g/m*3 0.6 C 0 km/h
1357 10-12-2017 17:00:00 0.6 C 4.8 g/m*3 0.6 C 0 km/h
1358 10-12-2017 17:05:00 0.7 C 4.88 g/m*3 0.7 C 0 km/h
1359 10-12-2017 17:10:00 0.7 C 4.88 g/m*3 0.7 C 0 km/h
1360 10-12-2017 17:15:00 0.8 C 4.91 g/m*3 0.8 C 4.8 km/h
1361 10-12-2017 17:20:00 0.8 C 4.91 g/m*3 0.8 C 1.6 km/h
1362 10-12-2017 17:25:00 0.9 C 4.95 g/m*3 0.9 C 4.8 km/h
1363 10-12-2017 17:30:00 1.3 C 5.09 g/m*3 1.3 C 3.2 km/h
1364 10-12-2017 17:35:00 1.6 C 5.19 g/m*3 1.6 C 4.8 km/h
1365 10-12-2017 17:40:00 1.9 C 5.35 g/m*3 1.9 C 3.2 km/h
1366 10-12-2017 17:45:00 2.3 C 5.5 g/m*3 -1.49 C 14.5 km/h
1367 10-12-2017 17:50:00 2.8 C 5.69 g/m*3 -1.14 C 16.1 km/h
1368 10-12-2017 17:55:00 3.2 C 5.85 g/m*3 -0.65 C 16.1 km/h
1369 10-12-2017 18:00:00 3.7 C 6.04 g/m*3 1.18 C 9.7 km/h
1370 10-12-2017 18:05:00 3.8 C 6.09 g/m*3 -0.36 C 19.3 km/h
1371 10-12-2017 18:10:00 4.2 C 6.25 g/m*3 -0.24 C 22.5 km/h
1372 10-12-2017 18:15:00 4.5 C 6.31 g/m*3 0.74 C 17.7 km/h
1373 10-12-2017 18:20:00 4.7 C 6.33 g/m*3 -0.1 C 27.4 km/h
1374 10-12-2017 18:25:00 4.9 C 6.35 g/m*3 0.15 C 27.4 km/h
1375 10-12-2017 18:30:00 5.2 C 6.4 g/m*3 0.86 C 24.1 km/h
Sensor: Nr:Datum:Temp:Abs-Feuchte:Windchill:Wind:
Aussen-T/F 1376 10-12-2017 18:35:00 5.5 C 6.39 g/m*3 1.42 C 22.5 km/h
1377 10-12-2017 18:40:00 5.7 C 6.4 g/m*3 1.67 C 22.5 km/h
1378 10-12-2017 18:45:00 5.8 C 6.45 g/m*3 1.8 C 22.5 km/h
1379 10-12-2017 18:50:00 6.1 C 6.5 g/m*3 1.86 C 25.7 km/h
1380 10-12-2017 18:55:00 6.1 C 6.43 g/m*3 2.95 C 16.1 km/h
1381 10-12-2017 19:00:00 6.2 C 6.47 g/m*3 1.32 C 33.8 km/h
1382 10-12-2017 19:05:00 6.3 C 6.44 g/m*3 1.45 C 33.8 km/h
1383 10-12-2017 19:10:00 6.5 C 6.52 g/m*3 2.09 C 29 km/h
1384 10-12-2017 19:15:00 6.7 C 6.53 g/m*3 2.49 C 27.4 km/h
1385 10-12-2017 19:20:00 6.7 C 6.46 g/m*3 3.29 C 19.3 km/h
1386 10-12-2017 19:25:00 6.8 C 6.5 g/m*3 2.76 C 25.7 km/h
1387 10-12-2017 19:30:00 6.8 C 6.42 g/m*3 2.61 C 27.4 km/h
1388 10-12-2017 19:35:00 7 C 6.43 g/m*3 2.74 C 29 km/h
1389 10-12-2017 19:40:00 7.2 C 6.44 g/m*3 2.53 C 35.4 km/h
1390 10-12-2017 19:45:00 7.2 C 6.44 g/m*3 3.75 C 20.9 km/h
1391 10-12-2017 19:50:00 7.2 C 6.44 g/m*3 3.43 C 24.1 km/h
1392 10-12-2017 19:55:00 7.2 C 6.44 g/m*3 3.43 C 24.1 km/h
1393 10-12-2017 20:00:00 7.2 C 6.44 g/m*3 3.13 C 27.4 km/h
1394 10-12-2017 20:05:00 7.2 C 6.44 g/m*3 3.43 C 24.1 km/h
1395 10-12-2017 20:10:00 7.3 C 6.48 g/m*3 3.13 C 29 km/h
1396 10-12-2017 20:15:00 7.4 C 6.52 g/m*3 3.39 C 27.4 km/h
1397 10-12-2017 20:20:00 7.5 C 6.56 g/m*3 3.27 C 30.6 km/h
1398 10-12-2017 20:25:00 7.5 C 6.64 g/m*3 3.81 C 24.1 km/h
1399 10-12-2017 20:30:00 7.4 C 6.6 g/m*3 3.84 C 22.5 km/h
1400 10-12-2017 20:35:00 7.3 C 6.64 g/m*3 3.87 C 20.9 km/h
Sensor: Nr:Datum:Temp:Abs-Feuchte:Windchill:Wind:
Aussen-T/F 1401 10-12-2017 20:40:00 7.2 C 6.67 g/m*3 5.04 C 11.3 km/h
1402 10-12-2017 20:45:00 7.1 C 6.79 g/m*3 4.65 C 12.9 km/h
1403 10-12-2017 20:50:00 6.8 C 6.65 g/m*3 4.87 C 9.7 km/h
1404 10-12-2017 20:55:00 6.7 C 6.69 g/m*3 4.75 C 9.7 km/h
1405 10-12-2017 21:00:00 6.6 C 6.72 g/m*3 4.32 C 11.3 km/h
1406 10-12-2017 21:05:00 6.5 C 6.67 g/m*3 4.51 C 9.7 km/h
1407 10-12-2017 21:10:00 6.4 C 6.63 g/m*3 3.8 C 12.9 km/h
1408 10-12-2017 21:15:00 6.3 C 6.66 g/m*3 2.98 C 17.7 km/h
1409 10-12-2017 21:20:00 6.4 C 6.71 g/m*3 4.39 C 9.7 km/h
1410 10-12-2017 21:25:00 6.3 C 6.66 g/m*3 4.27 C 9.7 km/h
1411 10-12-2017 21:30:00 6.4 C 6.78 g/m*3 3.55 C 14.5 km/h
1412 10-12-2017 21:35:00 6.4 C 6.71 g/m*3 3.32 C 16.1 km/h
1413 10-12-2017 21:40:00 6.5 C 6.75 g/m*3 3.67 C 14.5 km/h
1414 10-12-2017 21:45:00 6.5 C 6.75 g/m*3 3.23 C 17.7 km/h
1415 10-12-2017 21:50:00 6.6 C 6.79 g/m*3 2.82 C 22.5 km/h
1416 10-12-2017 21:55:00 6.7 C 6.84 g/m*3 2.22 C 30.6 km/h
1417 10-12-2017 22:00:00 6.7 C 6.84 g/m*3 3.29 C 19.3 km/h
1418 10-12-2017 22:05:00 6.8 C 6.88 g/m*3 2.48 C 29 km/h
1419 10-12-2017 22:10:00 6.7 C 6.84 g/m*3 2.64 C 25.7 km/h
1420 10-12-2017 22:15:00 6.6 C 6.79 g/m*3 2.82 C 22.5 km/h
1421 10-12-2017 22:20:00 6.6 C 6.79 g/m*3 2.99 C 20.9 km/h
1422 10-12-2017 22:25:00 6.6 C 6.79 g/m*3 2.51 C 25.7 km/h
1423 10-12-2017 22:30:00 6.6 C 6.79 g/m*3 2.99 C 20.9 km/h
1424 10-12-2017 22:35:00 6.6 C 6.79 g/m*3 2.99 C 20.9 km/h
1425 10-12-2017 22:40:00 6.6 C 6.72 g/m*3 3.79 C 14.5 km/h
Sensor: Nr:Datum:Temp:Abs-Feuchte:Windchill:Wind:
Aussen-T/F 1426 10-12-2017 22:45:00 6.6 C 6.72 g/m*3 2.22 C 29 km/h
1427 10-12-2017 22:50:00 6.6 C 6.64 g/m*3 3.57 C 16.1 km/h
1428 10-12-2017 22:55:00 6.6 C 6.72 g/m*3 3.57 C 16.1 km/h
1429 10-12-2017 23:00:00 6.5 C 6.67 g/m*3 4.87 C 8.1 km/h
1430 10-12-2017 23:05:00 6.5 C 6.67 g/m*3 4.2 C 11.3 km/h
1431 10-12-2017 23:10:00 6.4 C 6.63 g/m*3 3.8 C 12.9 km/h
1432 10-12-2017 23:15:00 6.4 C 6.63 g/m*3 2.56 C 22.5 km/h
1433 10-12-2017 23:20:00 6.3 C 6.59 g/m*3 4.64 C 8.1 km/h
1434 10-12-2017 23:25:00 6.2 C 6.55 g/m*3 3.84 C 11.3 km/h
1435 10-12-2017 23:30:00 6.1 C 6.5 g/m*3 3.18 C 14.5 km/h
1436 10-12-2017 23:35:00 6.1 C 6.5 g/m*3 4.04 C 9.7 km/h
1437 10-12-2017 23:40:00 6.1 C 6.5 g/m*3 3.72 C 11.3 km/h
1438 10-12-2017 23:45:00 6.1 C 6.58 g/m*3 2.18 C 22.5 km/h
1439 10-12-2017 23:50:00 6.1 C 6.58 g/m*3 3.18 C 14.5 km/h
1440 10-12-2017 23:55:00 6.1 C 6.58 g/m*3 3.72 C 11.3 km/h
1441 11-12-2017 00:00:00 6.1 C 6.58 g/m*3 2.54 C 19.3 km/h
1442 11-12-2017 00:05:00 6.1 C 6.58 g/m*3 4.4 C 8.1 km/h
1443 11-12-2017 00:10:00 6.1 C 6.58 g/m*3 2.73 C 17.7 km/h
1444 11-12-2017 00:15:00 6.1 C 6.58 g/m*3 3.72 C 11.3 km/h
1445 11-12-2017 00:20:00 6.2 C 6.62 g/m*3 3.56 C 12.9 km/h
1446 11-12-2017 00:25:00 6.2 C 6.69 g/m*3 3.3 C 14.5 km/h
1447 11-12-2017 00:30:00 6.1 C 6.58 g/m*3 6.1 C 1.6 km/h
1448 11-12-2017 00:35:00 6 C 6.53 g/m*3 6 C 4.8 km/h
1449 11-12-2017 00:40:00 5.8 C 6.45 g/m*3 5.8 C 3.2 km/h
1450 11-12-2017 00:45:00 5.6 C 6.36 g/m*3 5.6 C 4.8 km/h
Sensor: Nr:Datum:Temp:Abs-Feuchte:Windchill:Wind:
Aussen-T/F 1451 11-12-2017 00:50:00 5.4 C 6.35 g/m*3 5.4 C 3.2 km/h
1452 11-12-2017 00:55:00 5.3 C 6.31 g/m*3 5.3 C 3.2 km/h
1453 11-12-2017 01:00:00 5.2 C 6.33 g/m*3 5.2 C 3.2 km/h
1454 11-12-2017 01:05:00 5.1 C 6.29 g/m*3 5.1 C 0 km/h
1455 11-12-2017 01:10:00 4.9 C 6.21 g/m*3 4.9 C 3.2 km/h
1456 11-12-2017 01:15:00 4.9 C 6.21 g/m*3 4.9 C 3.2 km/h
1457 11-12-2017 01:20:00 4.8 C 6.17 g/m*3 4.8 C 3.2 km/h
1458 11-12-2017 01:25:00 4.8 C 6.24 g/m*3 4.8 C 1.6 km/h
1459 11-12-2017 01:30:00 4.9 C 6.28 g/m*3 4.9 C 4.8 km/h
1460 11-12-2017 01:35:00 4.9 C 6.28 g/m*3 4.9 C 1.6 km/h
1461 11-12-2017 01:40:00 5 C 6.32 g/m*3 5 C 3.2 km/h
1462 11-12-2017 01:45:00 5.1 C 6.43 g/m*3 5.1 C 1.6 km/h
1463 11-12-2017 01:50:00 5.2 C 6.4 g/m*3 5.2 C 1.6 km/h
1464 11-12-2017 01:55:00 5.2 C 6.4 g/m*3 5.2 C 3.2 km/h
1465 11-12-2017 02:00:00 5.2 C 6.4 g/m*3 5.2 C 1.6 km/h
1466 11-12-2017 02:05:00 5.2 C 6.4 g/m*3 5.2 C 1.6 km/h
1467 11-12-2017 02:10:00 5.1 C 6.36 g/m*3 5.1 C 1.6 km/h
1468 11-12-2017 02:15:00 5.1 C 6.36 g/m*3 5.1 C 1.6 km/h
1469 11-12-2017 02:20:00 4.9 C 6.28 g/m*3 4.9 C 0 km/h
1470 11-12-2017 02:25:00 4.9 C 6.28 g/m*3 4.9 C 1.6 km/h
1471 11-12-2017 02:30:00 4.9 C 6.28 g/m*3 4.9 C 0 km/h
1472 11-12-2017 02:35:00 4.8 C 6.24 g/m*3 4.8 C 0 km/h
1473 11-12-2017 02:40:00 4.8 C 6.24 g/m*3 4.8 C 3.2 km/h
1474 11-12-2017 02:45:00 4.8 C 6.24 g/m*3 4.8 C 3.2 km/h
1475 11-12-2017 02:50:00 4.8 C 6.3 g/m*3 4.8 C 1.6 km/h
Sensor: Nr:Datum:Temp:Abs-Feuchte:Windchill:Wind:
Aussen-T/F 1476 11-12-2017 02:55:00 4.8 C 6.3 g/m*3 4.8 C 1.6 km/h
1477 11-12-2017 03:00:00 4.8 C 6.3 g/m*3 4.8 C 3.2 km/h
1478 11-12-2017 03:05:00 4.8 C 6.3 g/m*3 4.8 C 0 km/h
1479 11-12-2017 03:10:00 4.8 C 6.3 g/m*3 4.8 C 0 km/h
1480 11-12-2017 03:15:00 4.8 C 6.3 g/m*3 3.36 C 6.4 km/h
1481 11-12-2017 03:20:00 4.8 C 6.3 g/m*3 4.8 C 1.6 km/h
1482 11-12-2017 03:25:00 4.8 C 6.3 g/m*3 4.8 C 0 km/h
1483 11-12-2017 03:30:00 4.8 C 6.3 g/m*3 4.8 C 0 km/h
1484 11-12-2017 03:35:00 4.8 C 6.3 g/m*3 4.8 C 1.6 km/h
1485 11-12-2017 03:40:00 4.9 C 6.35 g/m*3 4.9 C 1.6 km/h
1486 11-12-2017 03:45:00 4.9 C 6.35 g/m*3 4.9 C 1.6 km/h
1487 11-12-2017 03:50:00 5 C 6.39 g/m*3 5 C 0 km/h
1488 11-12-2017 03:55:00 5 C 6.39 g/m*3 5 C 0 km/h
1489 11-12-2017 04:00:00 5 C 6.39 g/m*3 5 C 0 km/h
1490 11-12-2017 04:05:00 5.1 C 6.43 g/m*3 5.1 C 0 km/h
1491 11-12-2017 04:10:00 5 C 6.39 g/m*3 5 C 0 km/h
1492 11-12-2017 04:15:00 5 C 6.39 g/m*3 5 C 3.2 km/h
1493 11-12-2017 04:20:00 4.9 C 6.35 g/m*3 4.9 C 3.2 km/h
1494 11-12-2017 04:25:00 4.9 C 6.35 g/m*3 4.9 C 1.6 km/h
1495 11-12-2017 04:30:00 4.9 C 6.35 g/m*3 4.9 C 0 km/h
1496 11-12-2017 04:35:00 4.9 C 6.35 g/m*3 4.9 C 0 km/h
1497 11-12-2017 04:40:00 4.8 C 6.3 g/m*3 4.8 C 0 km/h
1498 11-12-2017 04:45:00 4.7 C 6.26 g/m*3 4.7 C 0 km/h
1499 11-12-2017 04:50:00 4.6 C 6.22 g/m*3 4.6 C 0 km/h
1500 11-12-2017 04:55:00 4.4 C 6.14 g/m*3 4.4 C 0 km/h
Sensor: Nr:Datum:Temp:Abs-Feuchte:Windchill:Wind:
Aussen-T/F 1501 11-12-2017 05:00:00 4.3 C 6.1 g/m*3 4.3 C 0 km/h
1502 11-12-2017 05:05:00 4.2 C 6.06 g/m*3 4.2 C 0 km/h
1503 11-12-2017 05:10:00 4.2 C 6.06 g/m*3 4.2 C 0 km/h
1504 11-12-2017 05:15:00 4.2 C 6.06 g/m*3 4.2 C 3.2 km/h
1505 11-12-2017 05:20:00 4 C 5.98 g/m*3 4 C 1.6 km/h
1506 11-12-2017 05:25:00 3.9 C 5.94 g/m*3 3.9 C 3.2 km/h
1507 11-12-2017 05:30:00 3.9 C 5.94 g/m*3 3.9 C 3.2 km/h
1508 11-12-2017 05:35:00 3.9 C 6 g/m*3 3.9 C 0 km/h
1509 11-12-2017 05:40:00 3.9 C 6 g/m*3 3.9 C 0 km/h
1510 11-12-2017 05:45:00 3.9 C 6 g/m*3 3.9 C 0 km/h
1511 11-12-2017 05:50:00 3.8 C 5.96 g/m*3 3.8 C 0 km/h
1512 11-12-2017 05:55:00 3.8 C 5.96 g/m*3 3.8 C 0 km/h
1513 11-12-2017 06:00:00 3.8 C 5.96 g/m*3 3.8 C 0 km/h
1514 11-12-2017 06:05:00 3.7 C 5.92 g/m*3 3.7 C 0 km/h
1515 11-12-2017 06:10:00 3.7 C 5.92 g/m*3 3.7 C 0 km/h
1516 11-12-2017 06:15:00 3.7 C 5.92 g/m*3 3.7 C 0 km/h
1517 11-12-2017 06:20:00 3.7 C 5.92 g/m*3 3.7 C 0 km/h
1518 11-12-2017 06:25:00 3.8 C 5.96 g/m*3 3.8 C 0 km/h
1519 11-12-2017 06:30:00 3.8 C 5.96 g/m*3 3.8 C 0 km/h
1520 11-12-2017 06:35:00 3.8 C 5.96 g/m*3 3.8 C 0 km/h
1521 11-12-2017 06:40:00 3.8 C 5.96 g/m*3 3.8 C 0 km/h
1522 11-12-2017 06:45:00 3.8 C 5.96 g/m*3 3.8 C 0 km/h
1523 11-12-2017 06:50:00 3.8 C 6.02 g/m*3 3.8 C 0 km/h
1524 11-12-2017 06:55:00 3.8 C 6.02 g/m*3 3.8 C 0 km/h
1525 11-12-2017 07:00:00 3.8 C 6.02 g/m*3 3.8 C 0 km/h
Sensor: Nr:Datum:Temp:Abs-Feuchte:Windchill:Wind:
Aussen-T/F 1526 11-12-2017 07:05:00 3.9 C 6.06 g/m*3 3.9 C 0 km/h
1527 11-12-2017 07:10:00 3.8 C 6.02 g/m*3 3.8 C 0 km/h
1528 11-12-2017 07:15:00 3.9 C 6.06 g/m*3 3.9 C 0 km/h
1529 11-12-2017 07:20:00 3.9 C 6.06 g/m*3 3.9 C 0 km/h
1530 11-12-2017 07:25:00 4 C 6.1 g/m*3 4 C 0 km/h
1531 11-12-2017 07:30:00 4 C 6.1 g/m*3 4 C 0 km/h
1532 11-12-2017 07:35:00 4 C 6.1 g/m*3 4 C 0 km/h
1533 11-12-2017 07:40:00 4 C 6.1 g/m*3 4 C 0 km/h
1534 11-12-2017 07:45:00 4.1 C 6.14 g/m*3 4.1 C 0 km/h
1535 11-12-2017 07:50:00 4.1 C 6.14 g/m*3 4.1 C 0 km/h
1536 11-12-2017 07:55:00 4.1 C 6.14 g/m*3 4.1 C 0 km/h
1537 11-12-2017 08:00:00 4.2 C 6.19 g/m*3 4.2 C 0 km/h
1538 11-12-2017 08:05:00 4.2 C 6.19 g/m*3 4.2 C 0 km/h
1539 11-12-2017 08:10:00 4.2 C 6.19 g/m*3 4.2 C 0 km/h
1540 11-12-2017 08:15:00 4.2 C 6.19 g/m*3 4.2 C 0 km/h
1541 11-12-2017 08:20:00 4.2 C 6.19 g/m*3 4.2 C 0 km/h
1542 11-12-2017 08:25:00 4.2 C 6.19 g/m*3 4.2 C 0 km/h
1543 11-12-2017 08:30:00 4.3 C 6.23 g/m*3 4.3 C 0 km/h
1544 11-12-2017 08:35:00 4.3 C 6.23 g/m*3 4.3 C 0 km/h
1545 11-12-2017 08:40:00 4.3 C 6.23 g/m*3 4.3 C 0 km/h
1546 11-12-2017 08:45:00 4.3 C 6.23 g/m*3 4.3 C 0 km/h
1547 11-12-2017 08:50:00 4.4 C 6.27 g/m*3 4.4 C 0 km/h
1548 11-12-2017 08:55:00 4.4 C 6.27 g/m*3 4.4 C 0 km/h
1549 11-12-2017 09:00:00 4.5 C 6.31 g/m*3 4.5 C 0 km/h
1550 11-12-2017 09:05:00 4.5 C 6.31 g/m*3 4.5 C 3.2 km/h
Sensor: Nr:Datum:Temp:Abs-Feuchte:Windchill:Wind:
Aussen-T/F 1551 11-12-2017 09:10:00 4.6 C 6.35 g/m*3 4.6 C 1.6 km/h
1552 11-12-2017 09:15:00 4.6 C 6.35 g/m*3 4.6 C 0 km/h
1553 11-12-2017 09:20:00 4.6 C 6.35 g/m*3 4.6 C 1.6 km/h
1554 11-12-2017 09:25:00 4.6 C 6.35 g/m*3 4.6 C 0 km/h
1555 11-12-2017 09:30:00 4.7 C 6.39 g/m*3 4.7 C 0 km/h
1556 11-12-2017 09:35:00 4.7 C 6.39 g/m*3 4.7 C 0 km/h
1557 11-12-2017 09:40:00 4.7 C 6.46 g/m*3 4.7 C 0 km/h
1558 11-12-2017 09:45:00 4.7 C 6.46 g/m*3 4.7 C 1.6 km/h
1559 11-12-2017 09:50:00 4.7 C 6.46 g/m*3 4.7 C 3.2 km/h
1560 11-12-2017 09:55:00 4.8 C 6.5 g/m*3 4.8 C 0 km/h
1561 11-12-2017 10:00:00 4.8 C 6.5 g/m*3 4.8 C 4.8 km/h
1562 11-12-2017 10:05:00 4.8 C 6.5 g/m*3 4.8 C 1.6 km/h
1563 11-12-2017 10:10:00 4.9 C 6.55 g/m*3 4.9 C 0 km/h
1564 11-12-2017 10:15:00 4.8 C 6.5 g/m*3 4.8 C 0 km/h
1565 11-12-2017 10:20:00 4.9 C 6.55 g/m*3 4.9 C 3.2 km/h
1566 11-12-2017 10:25:00 4.9 C 6.55 g/m*3 4.9 C 3.2 km/h
1567 11-12-2017 10:30:00 5 C 6.59 g/m*3 3.59 C 6.4 km/h
1568 11-12-2017 10:35:00 5 C 6.59 g/m*3 3.11 C 8.1 km/h
1569 11-12-2017 10:40:00 5.1 C 6.63 g/m*3 5.1 C 4.8 km/h
1570 11-12-2017 10:45:00 5.1 C 6.63 g/m*3 2.51 C 11.3 km/h
1571 11-12-2017 10:50:00 5.1 C 6.63 g/m*3 5.1 C 3.2 km/h
1572 11-12-2017 10:55:00 5.2 C 6.68 g/m*3 3.82 C 6.4 km/h
1573 11-12-2017 11:00:00 5.2 C 6.68 g/m*3 2.96 C 9.7 km/h
1574 11-12-2017 11:05:00 5.3 C 6.72 g/m*3 5.3 C 4.8 km/h
1575 11-12-2017 11:10:00 5.4 C 6.77 g/m*3 3.58 C 8.1 km/h
Sensor: Nr:Datum:Temp:Abs-Feuchte:Windchill:Wind:
Aussen-T/F 1576 11-12-2017 11:15:00 5.6 C 6.86 g/m*3 5.6 C 4.8 km/h
1577 11-12-2017 11:20:00 5.8 C 6.95 g/m*3 4.05 C 8.1 km/h
1578 11-12-2017 11:25:00 5.9 C 6.99 g/m*3 2.93 C 14.5 km/h
1579 11-12-2017 11:30:00 6.2 C 7.13 g/m*3 3.07 C 16.1 km/h
1580 11-12-2017 11:35:00 6.3 C 7.18 g/m*3 3.43 C 14.5 km/h
1581 11-12-2017 11:40:00 6.4 C 7.23 g/m*3 6.4 C 4.8 km/h
1582 11-12-2017 11:45:00 6.6 C 7.32 g/m*3 4.04 C 12.9 km/h
1583 11-12-2017 11:50:00 6.6 C 7.32 g/m*3 4.04 C 12.9 km/h
1584 11-12-2017 11:55:00 6.7 C 7.37 g/m*3 5.11 C 8.1 km/h
1585 11-12-2017 12:00:00 6.7 C 7.37 g/m*3 6.7 C 3.2 km/h
1586 11-12-2017 12:05:00 6.7 C 7.37 g/m*3 6.7 C 1.6 km/h
1587 11-12-2017 12:10:00 6.7 C 7.37 g/m*3 6.7 C 4.8 km/h
1588 11-12-2017 12:15:00 6.8 C 7.42 g/m*3 4.56 C 11.3 km/h
1589 11-12-2017 12:20:00 6.9 C 7.47 g/m*3 4.99 C 9.7 km/h
1590 11-12-2017 12:25:00 7 C 7.52 g/m*3 4.29 C 14.5 km/h
1591 11-12-2017 12:30:00 7.1 C 7.57 g/m*3 4.92 C 11.3 km/h
1592 11-12-2017 12:35:00 7.1 C 7.57 g/m*3 7.1 C 4.8 km/h
1593 11-12-2017 12:40:00 7.1 C 7.57 g/m*3 5.58 C 8.1 km/h
1594 11-12-2017 12:45:00 7.1 C 7.57 g/m*3 5.58 C 8.1 km/h
1595 11-12-2017 12:50:00 7.1 C 7.57 g/m*3 7.1 C 3.2 km/h
1596 11-12-2017 12:55:00 7.1 C 7.57 g/m*3 7.1 C 3.2 km/h
1597 11-12-2017 13:00:00 7.2 C 7.61 g/m*3 7.2 C 3.2 km/h
1598 11-12-2017 13:05:00 7.2 C 7.61 g/m*3 7.2 C 1.6 km/h
1599 11-12-2017 13:10:00 7.3 C 7.66 g/m*3 5.47 C 9.7 km/h
1600 11-12-2017 13:15:00 7.4 C 7.71 g/m*3 5.02 C 12.9 km/h
Sensor: Nr:Datum:Temp:Abs-Feuchte:Windchill:Wind:
Aussen-T/F 1601 11-12-2017 13:20:00 7.4 C 7.71 g/m*3 5.93 C 8.1 km/h
1602 11-12-2017 13:25:00 7.4 C 7.63 g/m*3 7.4 C 3.2 km/h
1603 11-12-2017 13:30:00 7.3 C 7.58 g/m*3 6.25 C 6.4 km/h
1604 11-12-2017 13:35:00 7.3 C 7.58 g/m*3 7.3 C 0 km/h
1605 11-12-2017 13:40:00 7.3 C 7.58 g/m*3 7.3 C 0 km/h
1606 11-12-2017 13:45:00 7.3 C 7.58 g/m*3 7.3 C 1.6 km/h
1607 11-12-2017 13:50:00 7.3 C 7.58 g/m*3 7.3 C 1.6 km/h
1608 11-12-2017 13:55:00 7.3 C 7.58 g/m*3 7.3 C 4.8 km/h
1609 11-12-2017 14:00:00 7.3 C 7.66 g/m*3 7.3 C 1.6 km/h
1610 11-12-2017 14:05:00 7.4 C 7.71 g/m*3 7.4 C 3.2 km/h
1611 11-12-2017 14:10:00 7.4 C 7.71 g/m*3 7.4 C 3.2 km/h
1612 11-12-2017 14:15:00 7.5 C 7.68 g/m*3 7.5 C 3.2 km/h
1613 11-12-2017 14:20:00 7.6 C 7.73 g/m*3 7.6 C 4.8 km/h
1614 11-12-2017 14:25:00 7.6 C 7.73 g/m*3 7.6 C 4.8 km/h
1615 11-12-2017 14:30:00 7.7 C 7.78 g/m*3 7.7 C 3.2 km/h
1616 11-12-2017 14:35:00 7.7 C 7.87 g/m*3 5.15 C 14.5 km/h
1617 11-12-2017 14:40:00 7.8 C 7.83 g/m*3 6.83 C 6.4 km/h
1618 11-12-2017 14:45:00 7.7 C 7.78 g/m*3 6.71 C 6.4 km/h
1619 11-12-2017 14:50:00 7.7 C 7.78 g/m*3 7.7 C 4.8 km/h
1620 11-12-2017 14:55:00 7.7 C 7.78 g/m*3 7.7 C 0 km/h
1621 11-12-2017 15:00:00 7.6 C 7.73 g/m*3 7.6 C 0 km/h
1622 11-12-2017 15:05:00 7.6 C 7.73 g/m*3 7.6 C 0 km/h
1623 11-12-2017 15:10:00 7.5 C 7.68 g/m*3 7.5 C 4.8 km/h
1624 11-12-2017 15:15:00 7.5 C 7.68 g/m*3 7.5 C 3.2 km/h
1625 11-12-2017 15:20:00 7.4 C 7.63 g/m*3 7.4 C 3.2 km/h
Sensor: Nr:Datum:Temp:Abs-Feuchte:Windchill:Wind:
Aussen-T/F 1626 11-12-2017 15:25:00 7.4 C 7.63 g/m*3 7.4 C 3.2 km/h
1627 11-12-2017 15:30:00 7.3 C 7.58 g/m*3 7.3 C 3.2 km/h
1628 11-12-2017 15:35:00 7.3 C 7.58 g/m*3 7.3 C 3.2 km/h
1629 11-12-2017 15:40:00 7.3 C 7.58 g/m*3 7.3 C 0 km/h
1630 11-12-2017 15:45:00 7.2 C 7.54 g/m*3 7.2 C 0 km/h
1631 11-12-2017 15:50:00 7.2 C 7.54 g/m*3 7.2 C 3.2 km/h
1632 11-12-2017 15:55:00 7.2 C 7.54 g/m*3 7.2 C 4.8 km/h
1633 11-12-2017 16:00:00 7.2 C 7.54 g/m*3 7.2 C 3.2 km/h
1634 11-12-2017 16:05:00 7.1 C 7.49 g/m*3 7.1 C 1.6 km/h
1635 11-12-2017 16:10:00 7.1 C 7.49 g/m*3 7.1 C 3.2 km/h
1636 11-12-2017 16:15:00 7.1 C 7.49 g/m*3 7.1 C 4.8 km/h
1637 11-12-2017 16:20:00 7.1 C 7.49 g/m*3 7.1 C 1.6 km/h
1638 11-12-2017 16:25:00 7 C 7.44 g/m*3 7 C 3.2 km/h
1639 11-12-2017 16:30:00 6.9 C 7.39 g/m*3 6.9 C 0 km/h
1640 11-12-2017 16:35:00 7 C 7.52 g/m*3 5.9 C 6.4 km/h
1641 11-12-2017 16:40:00 7.1 C 7.57 g/m*3 7.1 C 4.8 km/h
1642 11-12-2017 16:45:00 7.1 C 7.57 g/m*3 7.1 C 1.6 km/h
1643 11-12-2017 16:50:00 7 C 7.44 g/m*3 7 C 1.6 km/h
1644 11-12-2017 16:55:00 6.9 C 7.39 g/m*3 6.9 C 0 km/h
1645 11-12-2017 17:00:00 6.9 C 7.39 g/m*3 6.9 C 1.6 km/h
1646 11-12-2017 17:05:00 6.9 C 7.47 g/m*3 6.9 C 1.6 km/h
1647 11-12-2017 17:10:00 7 C 7.52 g/m*3 7 C 3.2 km/h
1648 11-12-2017 17:15:00 6.9 C 7.47 g/m*3 6.9 C 4.8 km/h
1649 11-12-2017 17:20:00 6.9 C 7.39 g/m*3 6.9 C 4.8 km/h
1650 11-12-2017 17:25:00 7 C 7.52 g/m*3 7 C 3.2 km/h
Sensor: Nr:Datum:Temp:Abs-Feuchte:Windchill:Wind:
Aussen-T/F 1651 11-12-2017 17:30:00 7 C 7.52 g/m*3 7 C 3.2 km/h
1652 11-12-2017 17:35:00 7 C 7.44 g/m*3 7 C 1.6 km/h
1653 11-12-2017 17:40:00 7.1 C 7.49 g/m*3 4.41 C 14.5 km/h
1654 11-12-2017 17:45:00 7.2 C 7.54 g/m*3 5.35 C 9.7 km/h
1655 11-12-2017 17:50:00 7.1 C 7.49 g/m*3 7.1 C 4.8 km/h
1656 11-12-2017 17:55:00 7.2 C 7.54 g/m*3 7.2 C 4.8 km/h
1657 11-12-2017 18:00:00 7.2 C 7.46 g/m*3 7.2 C 4.8 km/h
1658 11-12-2017 18:05:00 7.3 C 7.51 g/m*3 5.47 C 9.7 km/h
1659 11-12-2017 18:10:00 7.3 C 7.43 g/m*3 6.25 C 6.4 km/h
1660 11-12-2017 18:15:00 7.4 C 7.48 g/m*3 7.4 C 3.2 km/h
1661 11-12-2017 18:20:00 7.5 C 7.44 g/m*3 7.5 C 4.8 km/h
1662 11-12-2017 18:25:00 7.5 C 7.44 g/m*3 7.5 C 3.2 km/h
1663 11-12-2017 18:30:00 7.5 C 7.44 g/m*3 7.5 C 1.6 km/h
1664 11-12-2017 18:35:00 7.4 C 7.4 g/m*3 7.4 C 3.2 km/h
1665 11-12-2017 18:40:00 7.4 C 7.4 g/m*3 5.28 C 11.3 km/h
1666 11-12-2017 18:45:00 7.4 C 7.4 g/m*3 5.93 C 8.1 km/h
1667 11-12-2017 18:50:00 7.5 C 7.36 g/m*3 6.05 C 8.1 km/h
1668 11-12-2017 18:55:00 7.6 C 7.33 g/m*3 7.6 C 4.8 km/h
1669 11-12-2017 19:00:00 7.7 C 7.38 g/m*3 6.71 C 6.4 km/h
1670 11-12-2017 19:05:00 7.7 C 7.38 g/m*3 5.94 C 9.7 km/h
1671 11-12-2017 19:10:00 7.8 C 7.35 g/m*3 6.83 C 6.4 km/h
1672 11-12-2017 19:15:00 8 C 7.36 g/m*3 7.06 C 6.4 km/h
1673 11-12-2017 19:20:00 8 C 7.36 g/m*3 6.01 C 11.3 km/h
1674 11-12-2017 19:25:00 8.2 C 7.37 g/m*3 8.2 C 4.8 km/h
1675 11-12-2017 19:30:00 8.2 C 7.37 g/m*3 7.29 C 6.4 km/h
Sensor: Nr:Datum:Temp:Abs-Feuchte:Windchill:Wind:
Aussen-T/F 1676 11-12-2017 19:35:00 8.2 C 7.37 g/m*3 8.2 C 4.8 km/h
1677 11-12-2017 19:40:00 8.2 C 7.29 g/m*3 8.2 C 4.8 km/h
1678 11-12-2017 19:45:00 8.2 C 7.29 g/m*3 6.25 C 11.3 km/h
1679 11-12-2017 19:50:00 8.2 C 7.37 g/m*3 8.2 C 3.2 km/h
1680 11-12-2017 19:55:00 8.1 C 7.32 g/m*3 8.1 C 3.2 km/h
1681 11-12-2017 20:00:00 7.9 C 7.23 g/m*3 6.94 C 6.4 km/h
1682 11-12-2017 20:05:00 8 C 7.19 g/m*3 6.64 C 8.1 km/h
1683 11-12-2017 20:10:00 7.9 C 7.23 g/m*3 7.9 C 3.2 km/h
1684 11-12-2017 20:15:00 7.8 C 7.18 g/m*3 7.8 C 1.6 km/h
1685 11-12-2017 20:20:00 7.8 C 7.18 g/m*3 7.8 C 3.2 km/h
1686 11-12-2017 20:25:00 7.7 C 7.14 g/m*3 6.28 C 8.1 km/h
1687 11-12-2017 20:30:00 7.7 C 7.22 g/m*3 7.7 C 1.6 km/h
1688 11-12-2017 20:35:00 7.8 C 7.18 g/m*3 5.77 C 11.3 km/h
1689 11-12-2017 20:40:00 7.8 C 7.18 g/m*3 7.8 C 4.8 km/h
1690 11-12-2017 20:45:00 7.7 C 7.14 g/m*3 7.7 C 4.8 km/h
1691 11-12-2017 20:50:00 7.8 C 7.18 g/m*3 5.77 C 11.3 km/h
1692 11-12-2017 20:55:00 7.9 C 7.23 g/m*3 6.94 C 6.4 km/h
1693 11-12-2017 21:00:00 8.1 C 7.41 g/m*3 5.23 C 17.7 km/h
1694 11-12-2017 21:05:00 8.1 C 7.49 g/m*3 4.73 C 22.5 km/h
1695 11-12-2017 21:10:00 7.8 C 7.26 g/m*3 4.35 C 22.5 km/h
1696 11-12-2017 21:15:00 7.6 C 7.25 g/m*3 5.26 C 12.9 km/h
1697 11-12-2017 21:20:00 7.4 C 7.16 g/m*3 6.37 C 6.4 km/h
1698 11-12-2017 21:25:00 7.2 C 7.14 g/m*3 4.77 C 12.9 km/h
1699 11-12-2017 21:30:00 7.1 C 7.1 g/m*3 7.1 C 4.8 km/h
1700 11-12-2017 21:35:00 6.9 C 7.01 g/m*3 6.9 C 3.2 km/h
Sensor: Nr:Datum:Temp:Abs-Feuchte:Windchill:Wind:
Aussen-T/F 1701 11-12-2017 21:40:00 6.8 C 6.96 g/m*3 6.8 C 4.8 km/h
1702 11-12-2017 21:45:00 6.8 C 6.96 g/m*3 6.8 C 1.6 km/h
1703 11-12-2017 21:50:00 6.7 C 6.91 g/m*3 5.11 C 8.1 km/h
1704 11-12-2017 21:55:00 6.6 C 6.87 g/m*3 4.63 C 9.7 km/h
1705 11-12-2017 22:00:00 6.6 C 6.79 g/m*3 3.57 C 16.1 km/h
1706 11-12-2017 22:05:00 6.6 C 6.79 g/m*3 3.57 C 16.1 km/h
1707 11-12-2017 22:10:00 6.7 C 6.76 g/m*3 2.94 C 22.5 km/h
1708 11-12-2017 22:15:00 6.7 C 6.76 g/m*3 4.17 C 12.9 km/h
1709 11-12-2017 22:20:00 6.7 C 6.76 g/m*3 3.92 C 14.5 km/h
1710 11-12-2017 22:25:00 6.7 C 6.76 g/m*3 3.48 C 17.7 km/h
1711 11-12-2017 22:30:00 6.8 C 6.73 g/m*3 3.24 C 20.9 km/h
1712 11-12-2017 22:35:00 6.8 C 6.73 g/m*3 3.42 C 19.3 km/h
1713 11-12-2017 22:40:00 6.8 C 6.73 g/m*3 3.61 C 17.7 km/h
1714 11-12-2017 22:45:00 6.8 C 6.73 g/m*3 3.61 C 17.7 km/h
1715 11-12-2017 22:50:00 6.8 C 6.73 g/m*3 3.61 C 17.7 km/h
1716 11-12-2017 22:55:00 6.8 C 6.73 g/m*3 4.04 C 14.5 km/h
1717 11-12-2017 23:00:00 6.8 C 6.73 g/m*3 5.22 C 8.1 km/h
1718 11-12-2017 23:05:00 6.7 C 6.69 g/m*3 4.44 C 11.3 km/h
1719 11-12-2017 23:10:00 6.7 C 6.69 g/m*3 5.11 C 8.1 km/h
1720 11-12-2017 23:15:00 6.7 C 6.69 g/m*3 3.48 C 17.7 km/h
1721 11-12-2017 23:20:00 6.8 C 6.65 g/m*3 4.56 C 11.3 km/h
1722 11-12-2017 23:25:00 6.8 C 6.65 g/m*3 3.82 C 16.1 km/h
1723 11-12-2017 23:30:00 6.8 C 6.65 g/m*3 5.22 C 8.1 km/h
1724 11-12-2017 23:35:00 6.8 C 6.65 g/m*3 6.8 C 1.6 km/h
1725 11-12-2017 23:40:00 6.8 C 6.65 g/m*3 5.22 C 8.1 km/h
Sensor: Nr:Datum:Temp:Abs-Feuchte:Windchill:Wind:
Aussen-T/F 1726 11-12-2017 23:45:00 6.8 C 6.58 g/m*3 4.56 C 11.3 km/h
1727 11-12-2017 23:50:00 6.8 C 6.58 g/m*3 3.42 C 19.3 km/h
1728 11-12-2017 23:55:00 6.9 C 6.62 g/m*3 4.41 C 12.9 km/h

Legende:
   Min
   Max


Maximal/Minimal-Werte vom 06.12.2017 - 11.12.2017

Sensor Min Max Avg
Temp
(Aussen-T/F)
-0.2 °C
09-12-2017  07:15:00
8.2 °C
11-12-2017  19:25:00
3.98 °C
Abs-Feuchte
(Aussen-T/F)
4.05 g/m*3
09-12-2017  06:00:00
7.87 g/m*3
11-12-2017  14:35:00
5.69 g/m*3
Windchill
(Aussen-T/F)
-4.76 C
10-12-2017  12:05:00
8.2 C
11-12-2017  19:25:00
2.34 C

Die Daten stammen von einer Davis Vantage Pro 2 Wetter-Station und werden unter Linux mit der Software wview2wettercgi und aufbereitet. Alle Angaben erfolgen ohne Gewähr für ihre Vollständigkeit oder Richtigkeit.
Kontakt: Rainer Krienke krienke@uni-koblenz.de . Meine Webseiten an der Uni Koblenz oder privat.
Version: $Revision: 0.78 $